FW4143 Weather Reports


time (UTC)temp
F
wind
direction
speed
knots
gust
knots
rain 1hr
in
rain 24hr
in
rain mn
in
humidity
%
barometer
mb
20260902204704 100 66 0.9 2.6 0.00 0.00 0.00 36 1011.8
20260902204604 100 66 0.9 2.6 0.00 0.00 0.00 36 1011.8
20260902204504 100 66 0.9 2.6 0.00 0.00 0.00 35 1011.9
20260902204404 100 66 0.9 5.2 0.00 0.00 0.00 35 1011.8
20260902204304 101 59 1.7 6.1 0.00 0.00 0.00 35 1011.8
20260902204204 101 55 1.7 6.1 0.00 0.00 0.00 36 1011.8
20260902204104 101 50 1.7 6.1 0.00 0.00 0.00 35 1011.8
20260902204004 101 52 1.7 6.1 0.00 0.00 0.00 35 1011.9
20260902203904 101 53 1.7 6.1 0.00 0.00 0.00 35 1011.9
20260902203804 101 56 1.7 6.1 0.00 0.00 0.00 35 1011.9
20260902203725 101 59 2.6 6.1 0.00 0.00 0.00 35 1011.9
20260902203604 101 62 2.6 6.1 0.00 0.00 0.00 35 1012.0
20260902203504 101 66 2.6 6.1 0.00 0.00 0.00 35 1012.0
20260902203425 102 68 2.6 6.1 0.00 0.00 0.00 34 1012.0
20260902203304 102 77 1.7 6.1 0.00 0.00 0.00 35 1012.0
20260902203204 102 87 1.7 5.2 0.00 0.00 0.00 35 1011.9
20260902203104 102 100 1.7 4.3 0.00 0.00 0.00 35 1012.0
20260902203004 102 109 0.9 3.5 0.00 0.00 0.00 35 1012.0
20260902202904 102 112 0.9 3.5 0.00 0.00 0.00 34 1012.0
20260902202804 102 116 0.9 3.5 0.00 0.00 0.00 34 1012.0
20260902202704 102 121 0.9 3.5 0.00 0.00 0.00 34 1012.0
20260902202604 102 123 0.9 3.5 0.00 0.00 0.00 34 1012.1
20260902202504 102 131 0.9 2.6 0.00 0.00 0.00 35 1012.1
20260902202404 102 137 0.9 2.6 0.00 0.00 0.00 35 1012.1
20260902202325 102 140 0.9 2.6 0.00 0.00 0.00 35 1012.1
20260902202204 102 146 0.9 3.5 0.00 0.00 0.00 35 1012.1
20260902202104 102 149 0.9 3.5 0.00 0.00 0.00 35 1012.2
20260902202004 101 151 0.9 3.5 0.00 0.00 0.00 35 1012.2
20260902201925 101 152 0.9 3.5 0.00 0.00 0.00 35 1012.2
20260902201804 101 152 1.7 3.5 0.00 0.00 0.00 36 1012.2
20260902201704 101 145 1.7 3.5 0.00 0.00 0.00 36 1012.2
20260902201604 100 138 1.7 3.5 0.00 0.00 0.00 36 1012.2
20260902201504 100 133 1.7 3.5 0.00 0.00 0.00 37 1012.2
20260902201404 100 121 1.7 4.3 0.00 0.00 0.00 37 1012.2
20260902201304 100 110 1.7 4.3 0.00 0.00 0.00 37 1012.3
20260902201225 100 101 2.6 4.3 0.00 0.00 0.00 37 1012.3
20260902201125 99 90 2.6 5.2 0.00 0.00 0.00 37 1012.3
20260902201004 99 70 2.6 5.2 0.00 0.00 0.00 37 1012.3
20260902200904 99 64 2.6 5.2 0.00 0.00 0.00 37 1012.4
20260902200804 99 57 2.6 5.2 0.00 0.00 0.00 37 1012.4
20260902200704 99 49 1.7 5.2 0.00 0.00 0.00 37 1012.4
20260902200625 99 47 1.7 5.2 0.00 0.00 0.00 37 1012.4
20260902200504 99 47 2.6 5.2 0.00 0.00 0.00 36 1012.5
20260902200425 100 46 2.6 5.2 0.00 0.00 0.00 36 1012.5
20260902200304 100 43 2.6 5.2 0.00 0.00 0.00 36 1012.5
20260902200204 100 42 1.7 5.2 0.00 0.00 0.00 36 1012.4
20260902200104 100 51 1.7 5.2 0.00 0.00 0.00 37 1012.5
20260902200004 100 58 1.7 4.3 0.00 0.00 0.00 37 1012.5
20260902195904 99 56 1.7 4.3 0.00 0.00 0.00 37 1012.5
20260902195804 99 55 2.6 5.2 0.00 0.00 0.00 37 1012.5
20260902195704 99 55 2.6 5.2 0.00 0.00 0.00 37 1012.6
20260902195604 99 56 2.6 5.2 0.00 0.00 0.00 37 1012.6
20260902195504 99 58 2.6 5.2 0.00 0.00 0.00 37 1012.6
20260902195404 99 60 2.6 5.2 0.00 0.00 0.00 37 1012.6
20260902195306 99 62 2.6 5.2 0.00 0.00 0.00 37 1012.6
20260902195204 100 63 2.6 7.8 0.00 0.00 0.00 37 1012.7
20260902195104 100 60 2.6 7.8 0.00 0.00 0.00 36 1012.7
20260902195004 100 58 3.5 7.8 0.00 0.00 0.00 37 1012.7
20260902194904 100 55 3.5 7.8 0.00 0.00 0.00 36 1012.7
20260902194804 100 53 3.5 7.8 0.00 0.00 0.00 37 1012.7
20260902194704 100 49 3.5 7.8 0.00 0.00 0.00 37 1012.7
20260902194604 100 41 3.5 7.8 0.00 0.00 0.00 37 1012.8
20260902194504 100 35 3.5 7.8 0.00 0.00 0.00 36 1012.8
20260902194404 100 29 3.5 7.8 0.00 0.00 0.00 37 1012.9
20260902194306 100 25 3.5 7.8 0.00 0.00 0.00 36 1012.9
20260902194225 101 16 3.5 7.8 0.00 0.00 0.00 36 1012.8
20260902194104 101 360 2.6 6.1 0.00 0.00 0.00 36 1012.9
20260902194004 101 1 2.6 6.1 0.00 0.00 0.00 36 1012.9
20260902193904 101 2 2.6 6.1 0.00 0.00 0.00 36 1012.9
20260902193825 100 6 2.6 6.1 0.00 0.00 0.00 36 1012.9
20260902193704 100 10 2.6 6.1 0.00 0.00 0.00 36 1013.0
20260902193604 100 32 2.6 6.1 0.00 0.00 0.00 37 1013.0
20260902193504 100 45 2.6 6.1 0.00 0.00 0.00 37 1013.0
20260902193425 100 52 2.6 5.2 0.00 0.00 0.00 36 1013.0
20260902193304 100 62 2.6 5.2 0.00 0.00 0.00 37 1013.0
20260902193204 100 65 2.6 5.2 0.00 0.00 0.00 36 1013.0
20260902193125 100 67 2.6 5.2 0.00 0.00 0.00 37 1013.1
20260902193004 100 69 2.6 5.2 0.00 0.00 0.00 36 1013.1
20260902192904 100 69 2.6 5.2 0.00 0.00 0.00 36 1013.1
20260902192825 100 69 2.6 5.2 0.00 0.00 0.00 36 1013.1
20260902192704 100 70 2.6 5.2 0.00 0.00 0.00 36 1013.2
20260902192604 101 70 2.6 5.2 0.00 0.00 0.00 36 1013.2
20260902192504 101 73 1.7 5.2 0.00 0.00 0.00 35 1013.2
20260902192404 101 74 1.7 5.2 0.00 0.00 0.00 36 1013.2
20260902192306 102 70 1.7 5.2 0.00 0.00 0.00 35 1013.2
20260902192204 102 70 1.7 5.2 0.00 0.00 0.00 35 1013.3
20260902192104 101 70 1.7 5.2 0.00 0.00 0.00 35 1013.2
20260902192004 101 71 1.7 6.1 0.00 0.00 0.00 35 1013.3
20260902191904 101 71 1.7 6.1 0.00 0.00 0.00 36 1013.2
20260902191825 101 70 1.7 6.1 0.00 0.00 0.00 36 1013.3
20260902191704 100 67 1.7 6.1 0.00 0.00 0.00 36 1013.3
20260902191604 100 63 1.7 6.1 0.00 0.00 0.00 37 1013.2
20260902191504 99 32 1.7 6.1 0.00 0.00 0.00 36 1013.3
20260902191425 99 298 2.6 6.1 0.00 0.00 0.00 36 1013.3
20260902191304 99 270 2.6 6.1 0.00 0.00 0.00 38 1013.4
20260902191204 99 263 2.6 7.0 0.00 0.00 0.00 37 1013.4
20260902191104 99 272 2.6 8.7 0.00 0.00 0.00 37 1013.4
20260902191004 98 295 3.5 8.7 0.00 0.00 0.00 37 1013.4
20260902190904 98 311 3.5 8.7 0.00 0.00 0.00 37 1013.4
20260902190804 98 343 4.3 8.7 0.00 0.00 0.00 37 1013.4
20260902190704 98 7 4.3 8.7 0.00 0.00 0.00 37 1013.4
20260902190604 98 16 4.3 8.7 0.00 0.00 0.00 37 1013.4
20260902190504 98 27 4.3 8.7 0.00 0.00 0.00 37 1013.5
20260902190404 98 38 4.3 8.7 0.00 0.00 0.00 37 1013.5
20260902190304 98 43 4.3 8.7 0.00 0.00 0.00 37 1013.5
20260902190204 99 49 3.5 8.7 0.00 0.00 0.00 37 1013.6
20260902190104 99 52 3.5 7.8 0.00 0.00 0.00 37 1013.6
20260902190004 99 58 2.6 7.0 0.00 0.00 0.00 37 1013.6
20260902185904 99 57 2.6 7.0 0.00 0.00 0.00 37 1013.6
20260902185804 99 64 2.6 7.0 0.00 0.00 0.00 36 1013.6
20260902185704 99 79 1.7 7.0 0.00 0.00 0.00 36 1013.6
20260902185604 99 128 1.7 7.0 0.00 0.00 0.00 36 1013.7
20260902185506 99 170 1.7 5.2 0.00 0.00 0.00 36 1013.6
20260902185404 99 192 1.7 5.2 0.00 0.00 0.00 37 1013.6
20260902185306 99 199 1.7 5.2 0.00 0.00 0.00 37 1013.6
20260902185205 98 202 1.7 5.2 0.00 0.00 0.00 37 1013.6
20260902185104 98 205 2.6 5.2 0.00 0.00 0.00 38 1013.6
20260902185004 98 209 2.6 5.2 0.00 0.00 0.00 38 1013.6
20260902184904 98 210 2.6 5.2 0.00 0.00 0.00 37 1013.6
20260902184804 97 212 2.6 5.2 0.00 0.00 0.00 37 1013.7
20260902184704 98 214 2.6 5.2 0.00 0.00 0.00 38 1013.7
20260902184625 98 214 2.6 5.2 0.00 0.00 0.00 38 1013.7
20260902184504 97 216 2.6 4.3 0.00 0.00 0.00 38 1013.7
20260902184404 97 211 2.6 4.3 0.00 0.00 0.00 38 1013.8
20260902184304 97 204 2.6 4.3 0.00 0.00 0.00 37 1013.8
20260902184204 97 185 2.6 4.3 0.00 0.00 0.00 37 1013.8
20260902184125 98 139 2.6 4.3 0.00 0.00 0.00 37 1013.8
20260902184004 98 80 2.6 8.7 0.00 0.00 0.00 37 1013.9
20260902183904 98 71 3.5 11.3 0.00 0.00 0.00 37 1013.9
20260902183804 98 72 3.5 11.3 0.00 0.00 0.00 37 1013.9
20260902183704 98 71 3.5 11.3 0.00 0.00 0.00 37 1013.9
20260902183604 98 71 3.5 11.3 0.00 0.00 0.00 38 1013.9
20260902183504 98 68 4.3 11.3 0.00 0.00 0.00 37 1014.0
20260902183425 98 66 4.3 11.3 0.00 0.00 0.00 37 1014.0
20260902183304 97 65 4.3 11.3 0.00 0.00 0.00 38 1014.0
20260902183225 97 64 4.3 11.3 0.00 0.00 0.00 38 1014.0
20260902183104 98 63 3.5 11.3 0.00 0.00 0.00 37 1014.0
20260902183004 98 60 3.5 11.3 0.00 0.00 0.00 37 1014.0
20260902182904 98 54 3.5 8.7 0.00 0.00 0.00 38 1014.0
20260902182825 98 51 3.5 7.8 0.00 0.00 0.00 38 1014.0
20260902182704 98 51 2.6 7.8 0.00 0.00 0.00 37 1014.0
20260902182625 98 50 2.6 7.8 0.00 0.00 0.00 38 1014.1
20260902182504 98 52 2.6 7.8 0.00 0.00 0.00 37 1014.1
20260902182404 97 61 2.6 7.0 0.00 0.00 0.00 37 1014.1
20260902182306 97 69 1.7 7.0 0.00 0.00 0.00 37 1014.2
20260902182204 97 76 2.6 7.0 0.00 0.00 0.00 37 1014.2
20260902182106 98 81 2.6 7.0 0.00 0.00 0.00 37 1014.2
20260902182025 98 89 2.6 7.0 0.00 0.00 0.00 37 1014.3
20260902181904 98 104 2.6 7.0 0.00 0.00 0.00 37 1014.2
20260902181804 98 105 2.6 7.0 0.00 0.00 0.00 36 1014.2
20260902181704 98 102 2.6 7.0 0.00 0.00 0.00 37 1014.2
20260902181625 98 100 2.6 7.0 0.00 0.00 0.00 38 1014.2
20260902181504 98 91 2.6 7.0 0.00 0.00 0.00 38 1014.2
20260902181404 98 84 2.6 7.0 0.00 0.00 0.00 37 1014.3
20260902181304 98 77 2.6 7.0 0.00 0.00 0.00 37 1014.3
20260902181204 98 72 2.6 7.0 0.00 0.00 0.00 37 1014.3
20260902181104 98 66 2.6 7.0 0.00 0.00 0.00 37 1014.3
20260902181004 98 57 1.7 6.1 0.00 0.00 0.00 36 1014.4
20260902180925 98 52 1.7 6.1 0.00 0.00 0.00 36 1014.4
20260902180804 99 39 1.7 5.2 0.00 0.00 0.00 36 1014.4
20260902180704 99 33 1.7 5.2 0.00 0.00 0.00 36 1014.4
20260902180604 98 20 1.7 5.2 0.00 0.00 0.00 37 1014.4
20260902180504 98 8 1.7 5.2 0.00 0.00 0.00 36 1014.5
20260902180404 98 356 1.7 5.2 0.00 0.00 0.00 36 1014.5
20260902180304 98 339 2.6 7.0 0.00 0.00 0.00 36 1014.5
20260902180204 98 326 2.6 7.0 0.00 0.00 0.00 36 1014.5
20260902180104 98 324 2.6 7.0 0.00 0.00 0.00 36 1014.6
20260902180006 98 338 2.6 7.0 0.00 0.00 0.00 36 1014.6
20260902175904 98 341 3.5 7.0 0.00 0.00 0.00 37 1014.7
20260902175804 98 343 3.5 7.0 0.00 0.00 0.00 37 1014.6
20260902175704 98 352 3.5 7.8 0.00 0.00 0.00 37 1014.7
20260902175625 98 7 3.5 7.8 0.00 0.00 0.00 37 1014.7
20260902175504 97 23 3.5 9.6 0.00 0.00 0.00 37 1014.7
20260902175404 97 26 3.5 9.6 0.00 0.00 0.00 37 1014.8
20260902175325 97 33 3.5 9.6 0.00 0.00 0.00 37 1014.8
20260902175204 97 43 3.5 9.6 0.00 0.00 0.00 37 1014.8
20260902175104 97 41 3.5 9.6 0.00 0.00 0.00 37 1014.8
20260902175004 97 42 3.5 9.6 0.00 0.00 0.00 37 1014.9
20260902174904 97 42 3.5 9.6 0.00 0.00 0.00 37 1014.9
20260902174804 97 42 3.5 9.6 0.00 0.00 0.00 36 1014.9
20260902174704 97 43 3.5 9.6 0.00 0.00 0.00 36 1015.0
20260902174604 97 39 2.6 9.6 0.00 0.00 0.00 36 1014.9
20260902174504 97 36 2.6 7.0 0.00 0.00 0.00 37 1015.0
20260902174404 97 31 2.6 7.0 0.00 0.00 0.00 36 1015.0
20260902174304 97 21 2.6 7.0 0.00 0.00 0.00 37 1015.0
20260902174225 97 19 2.6 7.0 0.00 0.00 0.00 36 1015.0
20260902174104 97 25 2.6 6.1 0.00 0.00 0.00 37 1015.0
20260902174004 97 25 2.6 7.0 0.00 0.00 0.00 37 1015.0
20260902173904 97 22 2.6 7.0 0.00 0.00 0.00 36 1015.0
20260902173825 97 22 2.6 7.0 0.00 0.00 0.00 37 1015.0
20260902173704 97 11 2.6 7.0 0.00 0.00 0.00 36 1015.1
20260902173604 97 20 3.5 7.0 0.00 0.00 0.00 36 1015.1
20260902173504 97 27 3.5 7.8 0.00 0.00 0.00 36 1015.1
20260902173404 97 37 3.5 7.8 0.00 0.00 0.00 36 1015.2
20260902173304 97 43 4.3 7.8 0.00 0.00 0.00 36 1015.1
20260902173204 97 43 4.3 7.8 0.00 0.00 0.00 36 1015.2
20260902173104 97 44 4.3 7.8 0.00 0.00 0.00 36 1015.2
20260902173004 97 48 4.3 7.8 0.00 0.00 0.00 36 1015.2
20260902172904 97 51 4.3 7.8 0.00 0.00 0.00 36 1015.2
20260902172804 96 54 4.3 7.8 0.00 0.00 0.00 36 1015.2
20260902172704 96 53 4.3 7.8 0.00 0.00 0.00 37 1015.2
20260902172604 96 49 4.3 7.8 0.00 0.00 0.00 37 1015.2
20260902172504 96 44 4.3 7.8 0.00 0.00 0.00 37 1015.2
20260902172425 96 39 4.3 7.8 0.00 0.00 0.00 37 1015.2
20260902172308 96 34 3.5 7.8 0.00 0.00 0.00 36 1015.3
20260902172204 96 29 3.5 7.0 0.00 0.00 0.00 36 1015.3
20260902172104 96 17 3.5 7.0 0.00 0.00 0.00 36 1015.2
20260902172004 97 359 2.6 6.1 0.00 0.00 0.00 36 1015.2
20260902171904 96 349 2.6 6.1 0.00 0.00 0.00 36 1015.3
20260902171804 96 355 3.5 7.0 0.00 0.00 0.00 36 1015.3
20260902171704 96 2 3.5 7.0 0.00 0.00 0.00 35 1015.3
20260902171625 96 8 3.5 7.0 0.00 0.00 0.00 35 1015.4
20260902171504 96 11 3.5 8.7 0.00 0.00 0.00 35 1015.4
20260902171404 96 14 3.5 8.7 0.00 0.00 0.00 36 1015.4
20260902171325 96 20 3.5 8.7 0.00 0.00 0.00 36 1015.4
20260902171204 96 31 3.5 8.7 0.00 0.00 0.00 36 1015.4
20260902171104 96 38 3.5 8.7 0.00 0.00 0.00 36 1015.4
20260902171004 96 45 3.5 8.7 0.00 0.00 0.00 36 1015.4
20260902170904 95 52 3.5 8.7 0.00 0.00 0.00 36 1015.5
20260902170804 95 57 3.5 8.7 0.00 0.00 0.00 36 1015.5
20260902170704 95 57 3.5 8.7 0.00 0.00 0.00 36 1015.5
20260902170604 95 58 2.6 7.8 0.00 0.00 0.00 36 1015.5
20260902170525 95 60 2.6 7.8 0.00 0.00 0.00 36 1015.5
20260902170425 95 62 3.5 7.8 0.00 0.00 0.00 36 1015.6
20260902170304 95 65 2.6 7.8 0.00 0.00 0.00 36 1015.6
20260902170225 95 67 2.6 6.1 0.00 0.00 0.00 36 1015.6
20260902170104 95 64 2.6 6.1 0.00 0.00 0.00 36 1015.6
20260902170004 95 63 2.6 6.1 0.00 0.00 0.00 35 1015.6
20260902165904 95 62 2.6 6.1 0.00 0.00 0.00 35 1015.5
20260902165804 95 60 2.6 7.0 0.00 0.00 0.00 36 1015.6
20260902165704 95 60 3.5 7.0 0.00 0.00 0.00 36 1015.6
20260902165604 95 61 2.6 7.0 0.00 0.00 0.00 35 1015.6
20260902165525 95 62 2.6 7.0 0.00 0.00 0.00 35 1015.6
20260902165404 95 62 2.6 7.0 0.00 0.00 0.00 36 1015.6
20260902165308 95 62 2.6 7.0 0.00 0.00 0.00 35 1015.7
20260902165204 95 64 1.7 7.0 0.00 0.00 0.00 35 1015.7
20260902165105 95 68 2.6 7.0 0.00 0.00 0.00 35 1015.7
20260902165004 94 69 2.6 7.0 0.00 0.00 0.00 35 1015.7
20260902164925 95 70 2.6 7.0 0.00 0.00 0.00 35 1015.8
20260902164804 95 72 2.6 6.1 0.00 0.00 0.00 35 1015.8
20260902164704 94 69 2.6 6.1 0.00 0.00 0.00 35 1015.8
20260902164604 94 67 2.6 7.0 0.00 0.00 0.00 35 1015.8
20260902164504 94 66 2.6 7.0 0.00 0.00 0.00 35 1015.8
20260902164404 94 66 3.5 7.0 0.00 0.00 0.00 35 1015.8
20260902164304 94 67 3.5 7.0 0.00 0.00 0.00 35 1015.9
20260902164204 94 66 3.5 7.0 0.00 0.00 0.00 35 1015.9
20260902164104 94 64 3.5 7.0 0.00 0.00 0.00 35 1015.9
20260902164004 94 63 3.5 7.0 0.00 0.00 0.00 35 1015.9
20260902163925 94 61 3.5 7.0 0.00 0.00 0.00 35 1015.8
20260902163804 94 59 3.5 7.0 0.00 0.00 0.00 35 1015.9
20260902163704 94 59 3.5 7.0 0.00 0.00 0.00 35 1015.9
20260902163604 94 59 3.5 8.7 0.00 0.00 0.00 35 1015.9
20260902163504 94 55 3.5 8.7 0.00 0.00 0.00 35 1015.9
20260902163404 94 53 3.5 8.7 0.00 0.00 0.00 35 1015.9
20260902163304 94 53 3.5 8.7 0.00 0.00 0.00 35 1015.9
20260902163204 94 52 3.5 9.6 0.00 0.00 0.00 35 1015.9
20260902163104 94 51 4.3 9.6 0.00 0.00 0.00 35 1015.9
20260902163004 94 50 4.3 9.6 0.00 0.00 0.00 35 1015.9
20260902162904 94 51 4.3 9.6 0.00 0.00 0.00 35 1015.9
20260902162804 93 51 3.5 9.6 0.00 0.00 0.00 35 1016.0
20260902162725 94 52 3.5 9.6 0.00 0.00 0.00 34 1015.9
20260902162604 94 53 3.5 9.6 0.00 0.00 0.00 34 1016.0
20260902162504 93 55 3.5 9.6 0.00 0.00 0.00 34 1015.9
20260902162404 94 57 3.5 9.6 0.00 0.00 0.00 34 1015.9
20260902162307 94 56 2.6 9.6 0.00 0.00 0.00 34 1016.0
20260902162225 94 56 2.6 8.7 0.00 0.00 0.00 34 1015.9
20260902162104 94 58 1.7 6.1 0.00 0.00 0.00 34 1015.9
20260902162004 94 63 1.7 5.2 0.00 0.00 0.00 34 1015.9
20260902161904 94 64 1.7 5.2 0.00 0.00 0.00 34 1015.9
20260902161804 94 63 2.6 5.2 0.00 0.00 0.00 33 1015.9
20260902161704 94 60 2.6 5.2 0.00 0.00 0.00 33 1015.9
20260902161604 94 61 2.6 6.1 0.00 0.00 0.00 33 1015.9
20260902161504 94 61 1.7 6.1 0.00 0.00 0.00 33 1015.9
20260902161404 93 60 1.7 6.1 0.00 0.00 0.00 33 1015.9
20260902161325 93 61 1.7 6.1 0.00 0.00 0.00 33 1015.9
20260902161204 93 61 1.7 6.1 0.00 0.00 0.00 33 1015.9
20260902161104 93 62 1.7 6.1 0.00 0.00 0.00 33 1015.9
20260902161004 93 63 1.7 6.1 0.00 0.00 0.00 33 1015.9
20260902160925 93 62 1.7 6.1 0.00 0.00 0.00 33 1015.9
20260902160804 93 60 1.7 6.1 0.00 0.00 0.00 32 1015.9
20260902160704 93 62 1.7 6.1 0.00 0.00 0.00 32 1015.9
20260902160625 93 59 1.7 4.3 0.00 0.00 0.00 32 1015.9
20260902160504 93 54 1.7 5.2 0.00 0.00 0.00 32 1015.9
20260902160425 93 55 2.6 5.2 0.00 0.00 0.00 32 1015.9
20260902160304 93 54 2.6 5.2 0.00 0.00 0.00 32 1015.9
20260902160225 93 55 2.6 5.2 0.00 0.00 0.00 32 1015.9
20260902160105 93 55 2.6 5.2 0.00 0.00 0.00 32 1015.9
20260902160006 93 55 2.6 5.2 0.00 0.00 0.00 31 1015.9
20260902155906 93 55 2.6 7.0 0.00 0.00 0.00 31 1015.9
20260902155804 92 60 2.6 7.0 0.00 0.00 0.00 31 1015.9
20260902155725 92 63 2.6 7.0 0.00 0.00 0.00 31 1015.9
20260902155603 92 66 2.6 7.0 0.00 0.00 0.00 31 1015.9
20260902155503 92 75 2.6 7.0 0.00 0.00 0.00 31 1015.9
20260902155404 92 77 2.6 7.0 0.00 0.00 0.00 30 1015.9
20260902155306 92 79 2.6 7.0 0.00 0.00 0.00 31 1015.8
20260902155204 92 79 2.6 7.0 0.00 0.00 0.00 31 1015.9
20260902155127 92 80 2.6 7.0 0.00 0.00 0.00 31 1015.9
20260902155004 92 82 2.6 7.0 0.00 0.00 0.00 30 1015.9
20260902154904 92 86 2.6 7.0 0.00 0.00 0.00 30 1015.9
20260902154804 92 86 2.6 7.0 0.00 0.00 0.00 30 1015.9
20260902154704 92 85 2.6 7.0 0.00 0.00 0.00 30 1015.9
20260902154604 92 85 2.6 7.0 0.00 0.00 0.00 30 1015.9
20260902154504 92 86 2.6 5.2 0.00 0.00 0.00 29 1015.9
20260902154404 92 86 2.6 5.2 0.00 0.00 0.00 29 1015.9
20260902154304 92 85 2.6 5.2 0.00 0.00 0.00 29 1015.9
20260902154204 91 83 2.6 5.2 0.00 0.00 0.00 29 1015.9
20260902154104 91 81 2.6 5.2 0.00 0.00 0.00 29 1015.9
20260902154004 91 79 2.6 5.2 0.00 0.00 0.00 28 1015.8
20260902153904 91 77 2.6 5.2 0.00 0.00 0.00 28 1015.9
20260902153825 91 76 1.7 5.2 0.00 0.00 0.00 28 1016.0
20260902153725 91 75 1.7 5.2 0.00 0.00 0.00 28 1015.9
20260902153625 91 73 1.7 5.2 0.00 0.00 0.00 28 1015.9
20260902153504 91 68 1.7 5.2 0.00 0.00 0.00 27 1015.9
20260902153403 91 61 1.7 5.2 0.00 0.00 0.00 27 1015.9
20260902153304 91 57 1.7 5.2 0.00 0.00 0.00 26 1015.9
20260902153225 91 55 1.7 6.1 0.00 0.00 0.00 26 1015.9
20260902153103 91 56 1.7 6.1 0.00 0.00 0.00 25 1015.9
20260902153004 91 57 1.7 6.1 0.00 0.00 0.00 25 1015.9
20260902152904 90 59 1.7 6.1 0.00 0.00 0.00 25 1015.9
20260902152804 90 59 1.7 6.1 0.00 0.00 0.00 25 1015.9
20260902152704 90 59 2.6 6.1 0.00 0.00 0.00 25 1015.9
20260902152604 90 60 2.6 6.1 0.00 0.00 0.00 25 1016.0
20260902152503 90 61 2.6 6.1 0.00 0.00 0.00 25 1016.0
20260902152404 90 62 2.6 6.1 0.00 0.00 0.00 25 1016.0
20260902152307 90 66 2.6 6.1 0.00 0.00 0.00 25 1016.0
20260902152204 90 69 2.6 6.1 0.00 0.00 0.00 24 1016.0
20260902152104 89 70 2.6 6.1 0.00 0.00 0.00 25 1016.0
20260902152004 89 71 2.6 6.1 0.00 0.00 0.00 25 1016.0
20260902151904 89 72 2.6 6.1 0.00 0.00 0.00 24 1016.0
20260902151804 89 73 2.6 6.1 0.00 0.00 0.00 25 1016.0
20260902151725 89 73 2.6 6.1 0.00 0.00 0.00 25 1016.0
20260902151604 89 72 2.6 6.1 0.00 0.00 0.00 24 1016.0
20260902151503 89 70 2.6 6.1 0.00 0.00 0.00 24 1016.0
20260902151425 89 72 2.6 6.1 0.00 0.00 0.00 23 1016.0
20260902151304 89 70 2.6 5.2 0.00 0.00 0.00 22 1016.1
20260902151204 89 68 2.6 5.2 0.00 0.00 0.00 22 1016.0
20260902151104 89 66 2.6 5.2 0.00 0.00 0.00 22 1016.0
20260902151006 89 65 2.6 7.0 0.00 0.00 0.00 22 1016.1
20260902150904 89 62 2.6 7.0 0.00 0.00 0.00 21 1016.1
20260902150804 89 63 2.6 7.0 0.00 0.00 0.00 22 1016.1
20260902150704 89 67 2.6 7.0 0.00 0.00 0.00 22 1016.1
20260902150604 89 71 2.6 7.0 0.00 0.00 0.00 22 1016.1
20260902150504 89 73 2.6 7.0 0.00 0.00 0.00 21 1016.1
20260902150404 88 71 2.6 7.0 0.00 0.00 0.00 21 1016.1
20260902150304 88 70 2.6 7.0 0.00 0.00 0.00 21 1016.1
20260902150204 88 69 2.6 7.0 0.00 0.00 0.00 21 1016.0
20260902150104 88 66 2.6 7.0 0.00 0.00 0.00 20 1016.1
20260902150004 88 67 2.6 7.0 0.00 0.00 0.00 19 1016.1
20260902145904 88 70 2.6 7.0 0.00 0.00 0.00 19 1016.0
20260902145803 88 69 2.6 7.0 0.00 0.00 0.00 19 1016.0
20260902145704 88 65 2.6 7.0 0.00 0.00 0.00 19 1016.0
20260902145604 88 63 2.6 6.1 0.00 0.00 0.00 18 1015.9
20260902145504 88 63 3.5 7.0 0.00 0.00 0.00 17 1016.0
20260902145404 88 63 3.5 7.0 0.00 0.00 0.00 17 1016.0
20260902145325 88 64 3.5 7.0 0.00 0.00 0.00 17 1016.0
20260902145204 88 64 3.5 7.0 0.00 0.00 0.00 17 1016.0
20260902145103 88 67 3.5 7.0 0.00 0.00 0.00 15 1015.9
20260902145004 88 66 3.5 8.7 0.00 0.00 0.00 15 1016.0
20260902144904 87 64 4.3 8.7 0.00 0.00 0.00 15 1016.0
20260902144804 87 63 4.3 9.6 0.00 0.00 0.00 15 1015.9
20260902144725 87 62 4.3 9.6 0.00 0.00 0.00 15 1015.9
20260902144604 87 58 5.2 9.6 0.00 0.00 0.00 15 1015.9
20260902144503 87 56 4.3 9.6 0.00 0.00 0.00 15 1016.0
20260902144404 87 56 4.3 9.6 0.00 0.00 0.00 15 1015.9
20260902144304 87 55 4.3 9.6 0.00 0.00 0.00 15 1016.0
20260902144204 87 55 4.3 9.6 0.00 0.00 0.00 14 1016.0
20260902144104 87 53 4.3 9.6 0.00 0.00 0.00 14 1016.0
20260902144004 87 51 4.3 9.6 0.00 0.00 0.00 14 1016.0
20260902143904 87 50 4.3 9.6 0.00 0.00 0.00 14 1016.0
20260902143804 87 48 3.5 7.8 0.00 0.00 0.00 13 1016.0
20260902143704 87 49 3.5 7.8 0.00 0.00 0.00 13 1016.0
20260902143604 87 53 3.5 7.0 0.00 0.00 0.00 12 1016.0
20260902143504 87 54 3.5 7.0 0.00 0.00 0.00 11 1016.0
20260902143425 87 55 3.5 7.0 0.00 0.00 0.00 11 1016.0
20260902143304 87 56 3.5 7.8 0.00 0.00 0.00 9 1016.1
20260902143204 86 58 4.3 7.8 0.00 0.00 0.00 9 1016.1
20260902143104 86 57 4.3 9.6 0.00 0.00 0.00 10 1016.0
20260902143004 86 58 4.3 9.6 0.00 0.00 0.00 9 1016.1
20260902142904 86 60 4.3 9.6 0.00 0.00 0.00 8 1016.0
20260902142803 86 62 4.3 9.6 0.00 0.00 0.00 7 1016.0
20260902142725 86 63 4.3 9.6 0.00 0.00 0.00 7 1016.1
20260902142605 86 62 4.3 9.6 0.00 0.00 0.00 6 1016.1
20260902142504 86 64 4.3 9.6 0.00 0.00 0.00 5 1016.1
20260902142404 86 67 3.5 9.6 0.00 0.00 0.00 5 1016.0
20260902142306 86 70 3.5 9.6 0.00 0.00 0.00 5 1016.1
20260902142203 86 72 3.5 9.6 0.00 0.00 0.00 4 1016.1
20260902142104 86 74 3.5 7.0 0.00 0.00 0.00 4 1016.1
20260902142004 86 73 3.5 7.0 0.00 0.00 0.00 4 1016.1
20260902141904 86 70 3.5 7.0 0.00 0.00 0.00 3 1016.1
20260902141803 86 69 4.3 7.0 0.00 0.00 0.00 3 1016.1
20260902141703 86 68 3.5 7.0 0.00 0.00 0.00 1 1016.1
20260902141625 85 69 3.5 7.0 0.00 0.00 0.00 1 1016.1
20260902141504 85 66 3.5 7.0 0.00 0.00 0.00 1 1016.1
20260902141403 85 64 3.5 7.0 0.00 0.00 0.00 1 1016.1
20260902141304 85 62 3.5 7.0 0.00 0.00 0.00 1 1016.1
20260902141204 85 62 3.5 7.0 0.00 0.00 0.00 2 1016.1
20260902141104 85 63 3.5 7.0 0.00 0.00 0.00 1 1016.1
20260902141004 85 64 3.5 7.0 0.00 0.00 0.00 1 1016.1
20260902140904 85 68 3.5 7.0 0.00 0.00 0.00 1 1016.1
20260902140804 85 69 3.5 7.0 0.00 0.00 0.00 1 1016.1
20260902140704 85 71 3.5 7.0 0.00 0.00 0.00 1 1016.0
20260902140604 85 72 3.5 7.0 0.00 0.00 0.00 1 1016.1
20260902140506 85 73 3.5 7.0 0.00 0.00 0.00 1 1016.1
20260902140404 85 73 3.5 7.0 0.00 0.00 0.00 1 1016.1
20260902140304 84 73 3.5 7.0 0.00 0.00 0.00 1 1016.1
20260902140204 84 71 3.5 6.1 0.00 0.00 0.00 1 1016.1
20260902140104 84 68 2.6 6.1 0.00 0.00 0.00 1 1016.0
20260902140025 84 68 2.6 5.2 0.00 0.00 0.00 1 1016.0
20260902135903 84 66 2.6 5.2 0.00 0.00 0.00 1 1016.0
20260902135804 84 64 2.6 5.2 0.00 0.00 0.00 1 1016.0
20260902135704 84 61 2.6 6.1 0.00 0.00 0.00 1 1016.0
20260902135603 84 59 2.6 6.1 0.00 0.00 0.00 1 1016.0
20260902135525 84 58 2.6 6.1 0.00 0.00 0.00 1 1015.9
20260902135404 84 58 3.5 6.1 0.00 0.00 0.00 1 1016.0
20260902135306 84 59 3.5 7.0 0.00 0.00 0.00 1 1015.9
20260902135225 84 57 3.5 7.0 0.00 0.00 0.00 1 1015.9
20260902135125 84 57 2.6 7.0 0.00 0.00 0.00 1 1015.8
20260902135004 83 57 2.6 7.0 0.00 0.00 0.00 1 1015.8
20260902134903 83 57 2.6 7.0 0.00 0.00 0.00 1 1015.8
20260902134804 83 58 2.6 7.0 0.00 0.00 0.00 1 1015.8
20260902134704 83 58 2.6 7.0 0.00 0.00 0.00 1 1015.8
20260902134604 83 58 2.6 7.0 0.00 0.00 0.00 1 1015.8
20260902134504 83 61 2.6 7.0 0.00 0.00 0.00 1 1015.8
20260902134404 83 62 2.6 7.0 0.00 0.00 0.00 1 1015.8
20260902134304 83 61 2.6 5.2 0.00 0.00 0.00 1 1015.8
20260902134204 83 63 2.6 5.2 0.00 0.00 0.00 1 1015.8
20260902134104 83 64 2.6 5.2 0.00 0.00 0.00 1 1015.8
20260902134004 83 65 2.6 5.2 0.00 0.00 0.00 1 1015.8
20260902133904 83 67 3.5 5.2 0.00 0.00 0.00 1 1015.8
20260902133803 82 68 3.5 5.2 0.00 0.00 0.00 1 1015.8
20260902133725 82 70 3.5 5.2 0.00 0.00 0.00 1 1015.8
20260902133606 82 71 3.5 6.1 0.00 0.00 0.00 1 1015.8
20260902133504 82 71 3.5 6.1 0.00 0.00 0.00 1 1015.8
20260902133425 82 70 3.5 6.1 0.00 0.00 0.00 1 1015.8
20260902133327 82 68 3.5 6.1 0.00 0.00 0.00 1 1015.8
20260902133204 82 69 3.5 6.1 0.00 0.00 0.00 1 1015.8
20260902133105 82 69 2.6 6.1 0.00 0.00 0.00 1 1015.8
20260902133025 82 69 2.6 6.1 0.00 0.00 0.00 1 1015.8
20260902132904 82 67 2.6 6.1 0.00 0.00 0.00 1 1015.8
20260902132825 82 66 2.6 6.1 0.00 0.00 0.00 1 1015.8
20260902132704 82 65 2.6 6.1 0.00 0.00 0.00 1 1015.7
20260902132604 81 66 1.7 5.2 0.00 0.00 0.00 1 1015.8
20260902132504 81 66 1.7 5.2 0.00 0.00 0.00 1 1015.7
20260902132404 81 67 1.7 4.3 0.00 0.00 0.00 1 1015.7
20260902132325 81 67 1.7 3.5 0.00 0.00 0.00 1 1015.7
20260902132225 81 66 1.7 3.5 0.00 0.00 0.00 1 1015.7
20260902132104 81 66 1.7 3.5 0.00 0.00 0.00 1 1015.7
20260902132004 80 66 1.7 3.5 0.00 0.00 0.00 1 1015.7
20260902131904 80 66 1.7 3.5 0.00 0.00 0.00 1 1015.7
20260902131804 80 66 1.7 3.5 0.00 0.00 0.00 1 1015.7
20260902131704 80 66 1.7 3.5 0.00 0.00 0.00 1 1015.6
20260902131604 80 66 1.7 3.5 0.00 0.00 0.00 1 1015.7
20260902131503 80 65 1.7 3.5 0.00 0.00 0.00 1 1015.7
20260902131404 80 65 1.7 3.5 0.00 0.00 0.00 1 1015.7
20260902131304 80 65 1.7 3.5 0.00 0.00 0.00 1 1015.7
20260902131204 80 65 1.7 3.5 0.00 0.00 0.00 1 1015.7
20260902131104 79 65 1.7 3.5 0.00 0.00 0.00 1 1015.7
20260902131004 79 65 1.7 3.5 0.00 0.00 0.00 1 1015.7
20260902130904 79 65 1.7 3.5 0.00 0.00 0.00 1 1015.7
20260902130804 79 65 1.7 3.5 0.00 0.00 0.00 1 1015.7
20260902130704 79 65 1.7 4.3 0.00 0.00 0.00 1 1015.7
20260902130604 79 65 1.7 4.3 0.00 0.00 0.00 1 1015.6
20260902130503 79 65 1.7 4.3 0.00 0.00 0.00 1 1015.6
20260902130404 78 65 1.7 4.3 0.00 0.00 0.00 1 1015.6
20260902130304 78 65 1.7 4.3 0.00 0.00 0.00 1 1015.5
20260902130204 78 65 1.7 4.3 0.00 0.00 0.00 1 1015.5
20260902130104 78 65 2.6 4.3 0.00 0.00 0.00 1 1015.5
20260902130025 78 65 2.6 4.3 0.00 0.00 0.00 1 1015.6
20260902125904 78 65 2.6 4.3 0.00 0.00 0.00 1 1015.5
20260902125804 78 65 2.6 4.3 0.00 0.00 0.00 1 1015.5
20260902125703 78 65 2.6 3.5 0.00 0.00 0.00 1 1015.5
20260902125604 78 65 2.6 3.5 0.00 0.00 0.00 1 1015.5
20260902125504 78 66 2.6 3.5 0.00 0.00 0.00 1 1015.5
20260902125404 78 66 1.7 3.5 0.00 0.00 0.00 1 1015.5
20260902125305 78 66 1.7 3.5 0.00 0.00 0.00 1 1015.5
20260902125204 78 66 1.7 4.3 0.00 0.00 0.00 1 1015.4
20260902125104 78 66 1.7 4.3 0.00 0.00 0.00 1 1015.4
20260902125004 78 66 1.7 4.3 0.00 0.00 0.00 1 1015.4
20260902124904 78 66 1.7 4.3 0.00 0.00 0.00 1 1015.4
20260902124803 78 66 1.7 4.3 0.00 0.00 0.00 1 1015.4
20260902124725 78 66 1.7 4.3 0.00 0.00 0.00 1 1015.4
20260902124604 78 67 1.7 4.3 0.00 0.00 0.00 1 1015.4
20260902124524 78 67 1.7 4.3 0.00 0.00 0.00 1 1015.4
20260902124403 78 67 1.7 4.3 0.00 0.00 0.00 1 1015.4
20260902124304 78 67 2.6 4.3 0.00 0.00 0.00 1 1015.4
20260902124203 78 67 1.7 4.3 0.00 0.00 0.00 1 1015.4
20260902124104 77 67 1.7 4.3 0.00 0.00 0.00 1 1015.4
20260902124024 77 67 1.7 4.3 0.00 0.00 0.00 1 1015.4
20260902123925 77 67 1.7 4.3 0.00 0.00 0.00 1 1015.3
20260902123804 77 68 1.7 4.3 0.00 0.00 0.00 1 1015.3
20260902123725 77 68 1.7 3.5 0.00 0.00 0.00 1 1015.3
20260902123603 77 68 1.7 3.5 0.00 0.00 0.00 1 1015.3
20260902123504 77 68 1.7 3.5 0.00 0.00 0.00 1 1015.3
20260902123404 77 68 1.7 3.5 0.00 0.00 0.00 1 1015.3
20260902123325 77 68 0.9 3.5 0.00 0.00 0.00 1 1015.3
20260902123204 77 68 0.9 2.6 0.00 0.00 0.00 1 1015.3
20260902123104 77 68 0.9 2.6 0.00 0.00 0.00 1 1015.3
20260902123024 77 68 0.9 2.6 0.00 0.00 0.00 1 1015.3
20260902122904 77 68 0.9 2.6 0.00 0.00 0.00 1 1015.3
20260902122804 77 68 0.9 2.6 0.00 0.00 0.00 1 1015.3
20260902122725 77 68 0.9 2.6 0.00 0.00 0.00 1 1015.3
20260902122625 77 68 0.9 2.6 0.00 0.00 0.00 1 1015.3
20260902122504 77 68 0.9 1.7 0.00 0.00 0.00 1 1015.3
20260902122404 77 68 0.0 1.7 0.00 0.00 0.00 1 1015.2
20260902122325 77 68 0.0 1.7 0.00 0.00 0.00 1 1015.2
20260902122225 77 68 0.0 1.7 0.00 0.00 0.00 1 1015.2
20260902122124 77 68 0.0 1.7 0.00 0.00 0.00 1 1015.3
20260902122003 77 68 0.9 1.7 0.00 0.00 0.00 1 1015.3
20260902121924 77 68 0.9 1.7 0.00 0.00 0.00 1 1015.3
20260902121824 77 68 0.9 1.7 0.00 0.00 0.00 1 1015.3
20260902121704 77 68 0.9 1.7 0.00 0.00 0.00 1 1015.3
20260902121625 77 68 0.0 1.7 0.00 0.00 0.00 1 1015.2
20260902121525 77 68 0.0 1.7 0.00 0.00 0.00 1 1015.2
20260902121404 77 68 0.9 1.7 0.00 0.00 0.00 1 1015.2
20260902121304 77 68 0.9 1.7 0.00 0.00 0.00 1 1015.2
20260902121225 77 68 0.9 1.7 0.00 0.00 0.00 1 1015.2
20260902121104 77 68 0.9 1.7 0.00 0.00 0.00 1 1015.2
20260902121004 77 68 0.9 1.7 0.00 0.00 0.00 1 1015.2
20260902120904 77 68 0.9 1.7 0.00 0.00 0.00 1 1015.2
20260902120804 77 68 0.9 0.9 0.00 0.00 0.00 1 1015.2
20260902120725 77 68 0.9 1.7 0.00 0.00 0.00 1 1015.2
20260902120604 77 68 0.9 1.7 0.00 0.00 0.00 1 1015.2
20260902120503 77 68 0.9 1.7 0.00 0.00 0.00 1 1015.2
20260902120404 78 68 0.9 3.5 0.00 0.00 0.00 1 1015.2
20260902120304 77 68 0.9 3.5 0.00 0.00 0.00 1 1015.2
20260902120204 78 68 0.9 3.5 0.00 0.00 0.00 1 1015.2
20260902120104 78 68 0.9 3.5 0.00 0.00 0.00 1 1015.2
20260902120004 78 68 0.9 3.5 0.00 0.00 0.00 1 1015.2
20260902115903 78 68 0.9 3.5 0.00 0.00 0.00 1 1015.2
20260902115825 78 68 0.9 3.5 0.00 0.00 0.00 1 1015.2
20260902115703 78 68 0.9 3.5 0.00 0.00 0.00 1 1015.2
20260902115604 78 68 0.9 3.5 0.00 0.00 0.00 1 1015.2
20260902115503 78 68 0.9 3.5 0.00 0.00 0.00 1 1015.2
20260902115404 78 68 0.9 3.5 0.00 0.00 0.00 1 1015.1
20260902115324 78 68 0.9 1.7 0.00 0.00 0.00 1 1015.1
20260902115204 78 68 0.9 1.7 0.00 0.00 0.00 1 1015.1
20260902115104 78 68 0.9 1.7 0.00 0.00 0.00 1 1015.1
20260902115004 78 68 0.9 1.7 0.00 0.00 0.00 1 1015.1
20260902114925 78 68 0.9 1.7 0.00 0.00 0.00 1 1015.1
20260902114804 78 68 0.9 1.7 0.00 0.00 0.00 1 1015.1
20260902114703 78 68 0.9 1.7 0.00 0.00 0.00 1 1015.1
20260902114625 78 68 0.9 1.7 0.00 0.00 0.00 1 1015.1
20260902114504 78 68 0.9 1.7 0.00 0.00 0.00 1 1015.1
20260902114403 78 68 0.9 1.7 0.00 0.00 0.00 1 1015.1
20260902114303 79 68 0.9 1.7 0.00 0.00 0.00 1 1015.0
20260902114204 79 68 0.9 1.7 0.00 0.00 0.00 1 1015.1
20260902114104 79 68 0.9 1.7 0.00 0.00 0.00 1 1015.1
20260902114025 79 68 0.9 1.7 0.00 0.00 0.00 1 1015.1
20260902113925 79 68 0.9 1.7 0.00 0.00 0.00 1 1015.1
20260902113804 79 68 0.9 1.7 0.00 0.00 0.00 1 1015.0
20260902113703 79 68 0.9 1.7 0.00 0.00 0.00 1 1015.1
20260902113604 79 68 0.9 1.7 0.00 0.00 0.00 1 1015.1
20260902113504 79 68 0.0 1.7 0.00 0.00 0.00 1 1015.1
20260902113403 79 68 0.0 0.9 0.00 0.00 0.00 1 1015.1
20260902113304 79 68 0.0 0.9 0.00 0.00 0.00 1 1015.1
20260902113204 79 68 0.0 0.9 0.00 0.00 0.00 1 1015.1
20260902113103 79 68 0.0 0.9 0.00 0.00 0.00 1 1015.0
20260902113004 79 68 0.0 0.9 0.00 0.00 0.00 1 1015.0
20260902112904 79 68 0.0 0.9 0.00 0.00 0.00 1 1015.0
20260902112803 79 68 0.0 0.9 0.00 0.00 0.00 1 1015.0
20260902112725 79 68 0.0 0.9 0.00 0.00 0.00 1 1015.0
20260902112604 79 68 0.0 0.9 0.00 0.00 0.00 1 1015.0
20260902112503 79 68 0.0 1.7 0.00 0.00 0.00 1 1015.0
20260902112404 79 68 0.0 1.7 0.00 0.00 0.00 1 1015.0
20260902112305 79 68 0.9 1.7 0.00 0.00 0.00 1 1014.9
20260902112203 79 68 0.9 1.7 0.00 0.00 0.00 1 1014.9
20260902112103 79 68 0.9 2.6 0.00 0.00 0.00 1 1014.9
20260902112003 79 68 0.9 2.6 0.00 0.00 0.00 1 1014.9
20260902111924 79 68 0.9 2.6 0.00 0.00 0.00 1 1014.9
20260902111803 79 68 0.9 2.6 0.00 0.00 0.00 1 1014.9
20260902111704 79 68 0.9 2.6 0.00 0.00 0.00 1 1014.9
20260902111625 79 68 0.9 2.6 0.00 0.00 0.00 1 1014.9
20260902111503 79 68 0.9 2.6 0.00 0.00 0.00 1 1014.8
20260902111404 79 68 0.9 2.6 0.00 0.00 0.00 1 1014.9
20260902111303 79 68 0.9 2.6 0.00 0.00 0.00 1 1014.8
20260902111225 79 68 0.9 2.6 0.00 0.00 0.00 1 1014.8
20260902111104 79 68 0.9 2.6 0.00 0.00 0.00 1 1014.9
20260902111006 79 67 0.9 2.6 0.00 0.00 0.00 1 1014.8
20260902110904 79 67 0.9 2.6 0.00 0.00 0.00 1 1014.9
20260902110804 79 67 0.9 2.6 0.00 0.00 0.00 1 1014.9
20260902110704 79 67 0.9 2.6 0.00 0.00 0.00 1 1014.8
20260902110603 79 67 0.9 2.6 0.00 0.00 0.00 1 1014.8
20260902110504 79 67 0.9 2.6 0.00 0.00 0.00 1 1014.8
20260902110404 79 67 1.7 3.5 0.00 0.00 0.00 1 1014.8
20260902110304 79 67 1.7 3.5 0.00 0.00 0.00 1 1014.9
20260902110225 79 67 0.9 3.5 0.00 0.00 0.00 1 1014.8
20260902110124 79 67 0.9 3.5 0.00 0.00 0.00 1 1014.9
20260902110024 79 67 0.9 3.5 0.00 0.00 0.00 1 1014.8
20260902105903 79 67 1.7 3.5 0.00 0.00 0.00 1 1014.8
20260902105803 79 67 1.7 3.5 0.00 0.00 0.00 1 1014.8
20260902105704 79 67 1.7 3.5 0.00 0.00 0.00 1 1014.8
20260902105604 79 67 1.7 3.5 0.00 0.00 0.00 1 1014.8
20260902105504 79 67 1.7 3.5 0.00 0.00 0.00 1 1014.8
20260902105404 79 67 1.7 2.6 0.00 0.00 0.00 1 1014.9
20260902105306 79 67 1.7 2.6 0.00 0.00 0.00 1 1014.9
20260902105204 79 67 1.7 2.6 0.00 0.00 0.00 1 1014.9
20260902105104 79 67 1.7 2.6 0.00 0.00 0.00 1 1014.9
20260902105004 79 67 1.7 2.6 0.00 0.00 0.00 1 1014.9
20260902104904 79 67 1.7 2.6 0.00 0.00 0.00 1 1014.9
20260902104804 80 67 1.7 2.6 0.00 0.00 0.00 1 1014.9
20260902104704 80 67 1.7 2.6 0.00 0.00 0.00 1 1014.9
20260902104603 80 67 1.7 2.6 0.00 0.00 0.00 1 1014.9
20260902104504 80 66 1.7 3.5 0.00 0.00 0.00 1 1014.9
20260902104425 80 66 1.7 3.5 0.00 0.00 0.00 1 1014.9
20260902104304 80 66 1.7 3.5 0.00 0.00 0.00 1 1014.9
20260902104203 80 66 1.7 3.5 0.00 0.00 0.00 1 1014.9
20260902104125 80 66 1.7 3.5 0.00 0.00 0.00 1 1014.9
20260902104024 80 66 1.7 3.5 0.00 0.00 0.00 1 1014.9
20260902103903 80 65 1.7 3.5 0.00 0.00 0.00 1 1014.9
20260902103803 80 65 1.7 3.5 0.00 0.00 0.00 1 1014.9
20260902103703 80 65 1.7 3.5 0.00 0.00 0.00 1 1015.0
20260902103603 80 65 1.7 3.5 0.00 0.00 0.00 1 1014.9
20260902103525 80 65 1.7 2.6 0.00 0.00 0.00 1 1014.9
20260902103404 80 64 1.7 2.6 0.00 0.00 0.00 1 1014.9
20260902103303 80 64 1.7 2.6 0.00 0.00 0.00 1 1015.0
20260902103204 80 64 1.7 2.6 0.00 0.00 0.00 1 1014.9
20260902103125 80 64 1.7 3.5 0.00 0.00 0.00 1 1014.9
20260902103003 80 64 1.7 3.5 0.00 0.00 0.00 1 1014.9
20260902102903 80 63 1.7 3.5 0.00 0.00 0.00 1 1014.9
20260902102803 80 63 1.7 3.5 0.00 0.00 0.00 1 1014.9
20260902102703 80 63 1.7 3.5 0.00 0.00 0.00 1 1014.9
20260902102604 80 63 1.7 3.5 0.00 0.00 0.00 1 1014.9
20260902102504 80 62 1.7 3.5 0.00 0.00 0.00 1 1014.8
20260902102403 80 62 1.7 3.5 0.00 0.00 0.00 1 1014.9
20260902102307 80 62 1.7 3.5 0.00 0.00 0.00 1 1014.9
20260902102204 80 62 1.7 3.5 0.00 0.00 0.00 1 1014.9
20260902102124 80 62 1.7 2.6 0.00 0.00 0.00 1 1014.9
20260902102024 80 61 1.7 2.6 0.00 0.00 0.00 1 1014.9
20260902101903 80 61 1.7 2.6 0.00 0.00 0.00 1 1014.9
20260902101804 80 61 1.7 2.6 0.00 0.00 0.00 1 1014.9
20260902101725 80 61 1.7 2.6 0.00 0.00 0.00 1 1014.9
20260902101603 80 61 1.7 2.6 0.00 0.00 0.00 1 1014.9
20260902101503 80 61 1.7 2.6 0.00 0.00 0.00 1 1014.8
20260902101403 80 61 1.7 2.6 0.00 0.00 0.00 1 1014.9
20260902101325 80 61 1.7 2.6 0.00 0.00 0.00 1 1014.9
20260902101203 80 61 1.7 2.6 0.00 0.00 0.00 1 1014.9
20260902101104 80 61 1.7 2.6 0.00 0.00 0.00 1 1014.9
20260902101004 80 61 1.7 2.6 0.00 0.00 0.00 1 1014.9
20260902100904 80 61 0.9 2.6 0.00 0.00 0.00 1 1014.9
20260902100804 80 61 0.9 2.6 0.00 0.00 0.00 1 1014.9
20260902100703 80 61 0.9 1.7 0.00 0.00 0.00 1 1014.9
20260902100603 80 61 0.9 1.7 0.00 0.00 0.00 1 1014.9
20260902100503 80 61 0.9 1.7 0.00 0.00 0.00 1 1014.9
20260902100403 80 61 0.9 1.7 0.00 0.00 0.00 1 1014.9
20260902100304 80 61 0.0 1.7 0.00 0.00 0.00 1 1014.9
20260902100203 80 61 0.0 1.7 0.00 0.00 0.00 1 1014.9
20260902100106 80 61 0.0 0.9 0.00 0.00 0.00 1 1015.0
20260902100004 80 61 0.0 0.9 0.00 0.00 0.00 1 1014.9
20260902095904 80 61 0.0 0.9 0.00 0.00 0.00 1 1014.9
20260902095804 80 60 0.0 0.9 0.00 0.00 0.00 1 1015.0
20260902095704 80 60 0.0 0.9 0.00 0.00 0.00 1 1014.9
20260902095604 80 60 0.0 0.9 0.00 0.00 0.00 1 1014.9
20260902095524 80 60 0.0 0.9 0.00 0.00 0.00 1 1014.9
20260902095403 80 60 0.0 0.9 0.00 0.00 0.00 1 1015.0
20260902095306 80 60 0.0 0.9 0.00 0.00 0.00 1 1014.9
20260902095204 80 60 0.0 0.9 0.00 0.00 0.00 1 1014.9
20260902095104 80 61 0.0 1.7 0.00 0.00 0.00 1 1014.9
20260902095003 80 61 0.0 1.7 0.00 0.00 0.00 1 1014.9
20260902094903 80 61 0.0 1.7 0.00 0.00 0.00 1 1014.9
20260902094803 80 61 0.0 1.7 0.00 0.00 0.00 1 1014.9
20260902094704 80 60 0.9 1.7 0.00 0.00 0.00 1 1014.9
20260902094603 80 60 0.9 3.5 0.00 0.00 0.00 1 1015.0
20260902094525 80 60 0.9 3.5 0.00 0.00 0.00 1 1014.9
20260902094403 80 60 0.9 3.5 0.00 0.00 0.00 1 1014.9
20260902094303 80 60 0.9 3.5 0.00 0.00 0.00 1 1014.9
20260902094204 80 60 0.9 3.5 0.00 0.00 0.00 1 1014.9
20260902094104 80 60 0.9 3.5 0.00 0.00 0.00 1 1014.9
20260902094004 80 60 1.7 3.5 0.00 0.00 0.00 1 1014.9
20260902093904 80 59 1.7 4.3 0.00 0.00 0.00 1 1014.9
20260902093803 80 59 1.7 4.3 0.00 0.00 0.00 1 1014.9
20260902093703 80 59 1.7 4.3 0.00 0.00 0.00 1 1014.8
20260902093604 80 58 1.7 4.3 0.00 0.00 0.00 1 1014.9
20260902093503 80 58 1.7 4.3 0.00 0.00 0.00 1 1014.9
20260902093404 80 58 1.7 4.3 0.00 0.00 0.00 1 1014.9
20260902093304 80 57 2.6 4.3 0.00 0.00 0.00 1 1014.9
20260902093203 80 57 2.6 4.3 0.00 0.00 0.00 1 1014.8
20260902093104 80 58 2.6 4.3 0.00 0.00 0.00 1 1014.9
20260902093004 80 54 2.6 5.2 0.00 0.00 0.00 1 1014.9
20260902092904 80 50 2.6 5.2 0.00 0.00 0.00 1 1014.9
20260902092803 80 45 2.6 5.2 0.00 0.00 0.00 1 1014.9
20260902092703 80 35 2.6 5.2 0.00 0.00 0.00 1 1014.9
20260902092625 80 31 2.6 5.2 0.00 0.00 0.00 1 1014.9
20260902092503 80 19 2.6 5.2 0.00 0.00 0.00 1 1014.9
20260902092403 80 6 2.6 5.2 0.00 0.00 0.00 1 1014.8
20260902092305 80 346 1.7 5.2 0.00 0.00 0.00 1 1014.8
20260902092203 81 329 1.7 5.2 0.00 0.00 0.00 1 1014.9
20260902092127 81 319 1.7 5.2 0.00 0.00 0.00 1 1014.8
20260902092004 81 307 1.7 3.5 0.00 0.00 0.00 1 1014.8
20260902091904 81 307 1.7 3.5 0.00 0.00 0.00 1 1014.8
20260902091803 81 306 1.7 3.5 0.00 0.00 0.00 1 1014.9
20260902091703 81 305 1.7 3.5 0.00 0.00 0.00 1 1014.8
20260902091604 81 305 1.7 3.5 0.00 0.00 0.00 1 1014.9
20260902091503 81 304 1.7 3.5 0.00 0.00 0.00 1 1014.9
20260902091403 81 304 1.7 3.5 0.00 0.00 0.00 1 1014.9
20260902091304 81 303 1.7 3.5 0.00 0.00 0.00 1 1014.9
20260902091225 81 303 1.7 3.5 0.00 0.00 0.00 1 1014.9
20260902091104 81 302 1.7 3.5 0.00 0.00 0.00 1 1014.9
20260902091003 81 301 1.7 3.5 0.00 0.00 0.00 1 1014.9
20260902090903 81 300 1.7 3.5 0.00 0.00 0.00 1 1014.9
20260902090804 81 300 1.7 3.5 0.00 0.00 0.00 1 1014.9
20260902090703 81 300 1.7 3.5 0.00 0.00 0.00 1 1014.9
20260902090603 81 300 1.7 3.5 0.00 0.00 0.00 1 1014.9
20260902090525 81 300 1.7 3.5 0.00 0.00 0.00 1 1015.0
20260902090403 80 300 0.9 3.5 0.00 0.00 0.00 1 1014.9
20260902090304 80 300 0.9 3.5 0.00 0.00 0.00 1 1015.0
20260902090203 80 300 0.9 2.6 0.00 0.00 0.00 1 1014.9
20260902090104 80 300 0.9 2.6 0.00 0.00 0.00 1 1015.0
20260902090004 80 300 0.9 2.6 0.00 0.00 0.00 1 1015.0
20260902085904 80 300 0.9 2.6 0.00 0.00 0.00 1 1015.0
20260902085804 80 300 0.9 2.6 0.00 0.00 0.00 1 1015.0
20260902085725 80 300 0.0 1.7 0.00 0.00 0.00 1 1015.0
20260902085603 80 300 0.0 1.7 0.00 0.00 0.00 1 1015.0
20260902085503 80 300 0.0 1.7 0.00 0.00 0.00 1 1015.0
20260902085403 80 300 0.0 0.9 0.00 0.00 0.00 1 1015.0
20260902085306 80 300 0.0 0.9 0.00 0.00 0.00 1 1015.0
20260902085224 80 300 0.0 0.9 0.00 0.00 0.00 1 1015.0
20260902085104 80 300 0.0 0.9 0.00 0.00 0.00 1 1015.0
20260902085003 80 300 0.0 0.9 0.00 0.00 0.00 1 1015.0
20260902084903 80 300 0.0 0.9 0.00 0.00 0.00 1 1015.1
20260902084803 80 300 0.0 1.7 0.00 0.00 0.00 1 1015.1
20260902084703 80 300 0.0 1.7 0.00 0.00 0.00 1 1015.1
20260902084603 80 300 0.0 1.7 0.00 0.00 0.00 1 1015.1
20260902084503 80 300 0.0 1.7 0.00 0.00 0.00 1 1015.0
20260902084403 80 300 0.0 1.7 0.00 0.00 0.00 1 1015.0
20260902084324 80 300 0.0 1.7 0.00 0.00 0.00 1 1015.0
20260902084203 80 300 0.0 1.7 0.00 0.00 0.00 1 1015.1
20260902084104 80 300 0.0 1.7 0.00 0.00 0.00 1 1015.0
20260902084003 80 300 0.0 1.7 0.00 0.00 0.00 1 1015.1
20260902083904 80 300 0.0 1.7 0.00 0.00 0.00 1 1015.1
20260902083825 80 300 0.9 1.7 0.00 0.00 0.00 1 1015.0
20260902083703 80 300 0.9 1.7 0.00 0.00 0.00 1 1015.0
20260902083604 80 300 0.9 1.7 0.00 0.00 0.00 1 1015.0
20260902083503 80 300 0.0 1.7 0.00 0.00 0.00 1 1015.0
20260902083403 80 300 0.9 1.7 0.00 0.00 0.00 1 1015.0
20260902083304 80 300 0.9 1.7 0.00 0.00 0.00 1 1015.0
20260902083203 80 300 0.9 1.7 0.00 0.00 0.00 1 1014.9
20260902083103 80 300 0.9 1.7 0.00 0.00 0.00 1 1015.0
20260902083004 80 300 0.9 1.7 0.00 0.00 0.00 1 1014.9
20260902082904 80 300 0.9 1.7 0.00 0.00 0.00 1 1015.0
20260902082803 80 300 0.9 2.6 0.00 0.00 0.00 1 1014.9
20260902082703 80 300 0.9 2.6 0.00 0.00 0.00 1 1015.0
20260902082603 80 300 0.9 2.6 0.00 0.00 0.00 1 1015.0
20260902082503 80 300 0.9 2.6 0.00 0.00 0.00 1 1015.0
20260902082403 80 300 0.9 2.6 0.00 0.00 0.00 1 1015.0
20260902082309 80 300 0.9 2.6 0.00 0.00 0.00 1 1015.0
20260902082203 80 300 0.9 2.6 0.00 0.00 0.00 1 1015.0
20260902082103 80 300 0.9 2.6 0.00 0.00 0.00 1 1015.0
20260902082004 80 300 0.9 2.6 0.00 0.00 0.00 1 1015.0
20260902081904 80 300 0.9 2.6 0.00 0.00 0.00 1 1015.0
20260902081825 80 300 0.9 2.6 0.00 0.00 0.00 1 1015.0
20260902081725 80 300 0.9 2.6 0.00 0.00 0.00 1 1015.1
20260902081603 80 300 0.9 2.6 0.00 0.00 0.00 1 1015.1
20260902081504 80 300 0.9 2.6 0.00 0.00 0.00 1 1015.0
20260902081404 80 300 0.9 1.7 0.00 0.00 0.00 1 1015.1
20260902081303 80 300 0.9 1.7 0.00 0.00 0.00 1 1015.1
20260902081204 80 300 0.9 1.7 0.00 0.00 0.00 1 1015.2
20260902081104 80 300 0.9 2.6 0.00 0.00 0.00 1 1015.2
20260902081004 80 300 0.9 2.6 0.00 0.00 0.00 1 1015.2
20260902080903 80 299 0.9 2.6 0.00 0.00 0.00 1 1015.2
20260902080804 80 299 0.9 2.6 0.00 0.00 0.00 1 1015.2
20260902080703 80 299 0.9 2.6 0.00 0.00 0.00 1 1015.2
20260902080603 80 299 0.9 2.6 0.00 0.00 0.00 1 1015.2
20260902080503 80 298 0.9 2.6 0.00 0.00 0.00 1 1015.2
20260902080403 80 298 0.9 2.6 0.00 0.00 0.00 1 1015.2
20260902080303 80 298 0.9 2.6 0.00 0.00 0.00 1 1015.2
20260902080204 80 298 0.9 2.6 0.00 0.00 0.00 1 1015.3
20260902080104 80 297 0.0 1.7 0.00 0.00 0.00 1 1015.3
20260902080027 80 297 0.0 1.7 0.00 0.00 0.00 1 1015.3
20260902075903 80 297 0.0 1.7 0.00 0.00 0.00 1 1015.3
20260902075803 80 297 0.0 1.7 0.00 0.00 0.00 1 1015.3
20260902075703 80 298 0.0 0.9 0.00 0.00 0.00 1 1015.3
20260902075603 80 298 0.0 0.9 0.00 0.00 0.00 1 1015.3
20260902075503 80 298 0.0 0.9 0.00 0.00 0.00 1 1015.3
20260902075403 80 298 0.0 0.9 0.00 0.00 0.00 1 1015.3
20260902075306 80 298 0.0 0.9 0.00 0.00 0.00 1 1015.3
20260902075203 80 298 0.0 0.9 0.00 0.00 0.00 1 1015.3
20260902075103 80 298 0.0 0.9 0.00 0.00 0.00 1 1015.3
20260902075003 80 298 0.0 0.9 0.00 0.00 0.00 1 1015.3
20260902074903 80 298 0.9 1.7 0.00 0.00 0.00 1 1015.3
20260902074803 80 298 0.9 1.7 0.00 0.00 0.00 1 1015.3
20260902074724 81 298 0.0 1.7 0.00 0.00 0.00 1 1015.3
20260902074603 81 298 0.0 1.7 0.00 0.00 0.00 1 1015.4
20260902074503 81 298 0.0 1.7 0.00 0.00 0.00 1 1015.4
20260902074403 81 298 0.9 1.7 0.00 0.00 0.00 1 1015.4
20260902074304 81 298 0.9 1.7 0.00 0.00 0.00 1 1015.4
20260902074203 81 298 0.9 1.7 0.00 0.00 0.00 1 1015.4
20260902074104 81 298 0.9 1.7 0.00 0.00 0.00 1 1015.4
20260902074003 81 298 0.9 1.7 0.00 0.00 0.00 1 1015.4
20260902073924 81 298 0.9 1.7 0.00 0.00 0.00 1 1015.4
20260902073804 81 298 0.9 1.7 0.00 0.00 0.00 1 1015.3
20260902073704 81 298 0.9 1.7 0.00 0.00 0.00 1 1015.4
20260902073604 81 298 0.9 1.7 0.00 0.00 0.00 1 1015.4
20260902073503 81 298 0.9 1.7 0.00 0.00 0.00 1 1015.5
20260902073424 81 298 0.9 1.7 0.00 0.00 0.00 1 1015.4
20260902073324 81 298 0.9 1.7 0.00 0.00 0.00 1 1015.4
20260902073203 81 298 0.9 1.7 0.00 0.00 0.00 1 1015.4
20260902073104 81 298 0.0 1.7 0.00 0.00 0.00 1 1015.4
20260902073004 81 298 0.0 1.7 0.00 0.00 0.00 1 1015.4
20260902072903 81 298 0.0 1.7 0.00 0.00 0.00 1 1015.4
20260902072803 81 298 0.0 1.7 0.00 0.00 0.00 1 1015.4
20260902072704 81 298 0.0 1.7 0.00 0.00 0.00 1 1015.4
20260902072625 81 298 0.9 1.7 0.00 0.00 0.00 1 1015.4
20260902072525 81 298 0.9 1.7 0.00 0.00 0.00 1 1015.4
20260902072403 81 298 0.9 1.7 0.00 0.00 0.00 1 1015.4
20260902072309 81 298 0.9 1.7 0.00 0.00 0.00 1 1015.4
20260902072225 81 298 0.9 1.7 0.00 0.00 0.00 1 1015.4
20260902072104 81 298 0.9 1.7 0.00 0.00 0.00 1 1015.4
20260902072003 81 298 0.9 1.7 0.00 0.00 0.00 1 1015.4
20260902071903 81 298 0.9 1.7 0.00 0.00 0.00 1 1015.5
20260902071803 81 298 0.9 1.7 0.00 0.00 0.00 1 1015.5
20260902071725 81 298 0.9 1.7 0.00 0.00 0.00 1 1015.5
20260902071603 82 298 0.9 1.7 0.00 0.00 0.00 1 1015.5
20260902071504 82 298 0.9 1.7 0.00 0.00 0.00 1 1015.5
20260902071403 82 298 0.9 1.7 0.00 0.00 0.00 1 1015.5
20260902071303 82 298 0.0 1.7 0.00 0.00 0.00 1 1015.6
20260902071224 82 298 0.0 1.7 0.00 0.00 0.00 1 1015.6
20260902071124 82 298 0.0 1.7 0.00 0.00 0.00 1 1015.5
20260902071024 82 298 0.0 1.7 0.00 0.00 0.00 1 1015.5
20260902070903 82 297 0.0 1.7 0.00 0.00 0.00 1 1015.6
20260902070803 82 297 0.0 1.7 0.00 0.00 0.00 1 1015.5
20260902070703 82 297 0.0 1.7 0.00 0.00 0.00 1 1015.5
20260902070604 82 297 0.0 1.7 0.00 0.00 0.00 1 1015.5
20260902070504 82 297 0.0 1.7 0.00 0.00 0.00 1 1015.5
20260902070403 82 297 0.0 1.7 0.00 0.00 0.00 1 1015.5
20260902070303 82 297 0.0 1.7 0.00 0.00 0.00 1 1015.5
20260902070203 82 298 0.0 1.7 0.00 0.00 0.00 1 1015.5
20260902070103 82 298 0.0 1.7 0.00 0.00 0.00 1 1015.5
20260902070005 82 298 0.0 1.7 0.00 0.00 0.00 1 1015.5
20260902065903 82 298 0.0 1.7 0.00 0.00 0.00 1 1015.5
20260902065804 82 298 0.0 1.7 0.00 0.00 0.00 1 1015.5
20260902065703 82 298 0.9 1.7 0.00 0.00 0.00 1 1015.5
20260902065604 82 298 0.9 1.7 0.00 0.00 0.00 1 1015.5
20260902065503 82 298 0.9 1.7 0.00 0.00 0.00 1 1015.6
20260902065403 82 298 0.9 1.7 0.00 0.00 0.00 1 1015.5
20260902065307 82 298 0.9 1.7 0.00 0.00 0.00 1 1015.5
20260902065224 82 298 0.9 1.7 0.00 0.00 0.00 1 1015.5
20260902065103 82 298 0.9 1.7 0.00 0.00 0.00 1 1015.5
20260902065003 82 298 0.0 1.7 0.00 0.00 0.00 1 1015.5
20260902064904 82 298 0.9 1.7 0.00 0.00 0.00 1 1015.5
20260902064803 82 298 0.0 1.7 0.00 0.00 0.00 1 1015.5
20260902064704 82 298 0.0 1.7 0.00 0.00 0.00 1 1015.5
20260902064603 82 298 0.0 1.7 0.00 0.00 0.00 1 1015.5
20260902064525 82 298 0.0 1.7 0.00 0.00 0.00 1 1015.6
20260902064403 82 298 0.0 1.7 0.00 0.00 0.00 1 1015.5
20260902064303 82 298 0.0 1.7 0.00 0.00 0.00 1 1015.5
20260902064203 82 298 0.0 1.7 0.00 0.00 0.00 1 1015.5
20260902064124 82 298 0.0 1.7 0.00 0.00 0.00 1 1015.5
20260902064004 82 298 0.0 1.7 0.00 0.00 0.00 1 1015.5
20260902063903 82 298 0.0 1.7 0.00 0.00 0.00 1 1015.5
20260902063803 82 298 0.9 1.7 0.00 0.00 0.00 1 1015.5
20260902063703 82 298 0.9 1.7 0.00 0.00 0.00 1 1015.5
20260902063603 82 298 0.9 2.6 0.00 0.00 0.00 1 1015.5
20260902063503 82 298 0.9 2.6 0.00 0.00 0.00 1 1015.5
20260902063403 82 298 0.9 2.6 0.00 0.00 0.00 1 1015.5
20260902063303 82 298 0.9 2.6 0.00 0.00 0.00 1 1015.5
20260902063203 82 298 0.9 2.6 0.00 0.00 0.00 1 1015.5
20260902063104 82 298 0.9 2.6 0.00 0.00 0.00 1 1015.5
20260902063004 82 298 0.9 2.6 0.00 0.00 0.00 1 1015.6
20260902062903 82 298 0.9 2.6 0.00 0.00 0.00 1 1015.7
20260902062803 82 298 0.9 2.6 0.00 0.00 0.00 1 1015.6
20260902062704 82 298 0.9 2.6 0.00 0.00 0.00 1 1015.7
20260902062603 82 298 0.9 2.6 0.00 0.00 0.00 1 1015.6
20260902062503 82 298 0.9 2.6 0.00 0.00 0.00 1 1015.7
20260902062404 82 298 0.9 2.6 0.00 0.00 0.00 1 1015.7
20260902062306 82 298 0.9 2.6 0.00 0.00 0.00 1 1015.6
20260902062203 82 298 0.9 2.6 0.00 0.00 0.00 1 1015.6
20260902062104 82 299 0.9 2.6 0.00 0.00 0.00 1 1015.5
20260902062003 82 299 0.9 2.6 0.00 0.00 0.00 1 1015.6
20260902061904 82 299 0.9 2.6 0.00 0.00 0.00 1 1015.5
20260902061824 82 299 0.9 2.6 0.00 0.00 0.00 1 1015.6
20260902061703 82 299 0.9 2.6 0.00 0.00 0.00 1 1015.6
20260902061603 82 299 0.9 2.6 0.00 0.00 0.00 1 1015.6
20260902061503 82 299 0.9 2.6 0.00 0.00 0.00 1 1015.6
20260902061403 82 299 0.9 2.6 0.00 0.00 0.00 1 1015.6
20260902061324 82 299 0.9 2.6 0.00 0.00 0.00 1 1015.6
20260902061203 82 300 0.9 2.6 0.00 0.00 0.00 1 1015.6
20260902061103 82 300 0.9 2.6 0.00 0.00 0.00 1 1015.6
20260902061046 82 300 0.9 2.6 0.00 0.00 0.00 1 1015.7
20260902060904 82 300 0.9 2.6 0.00 0.00 0.00 1 1015.6
20260902060803 83 300 0.9 1.7 0.00 0.00 0.00 1 1015.7
20260902060703 83 300 0.0 1.7 0.00 0.00 0.00 1 1015.6
20260902060625 83 300 0.0 1.7 0.00 0.00 0.00 1 1015.7
20260902060503 83 300 0.0 1.7 0.00 0.00 0.00 1 1015.7
20260902060403 82 300 0.0 1.7 0.00 0.00 0.00 1 1015.7
20260902060303 82 300 0.0 0.9 0.00 0.00 0.00 1 1015.7
20260902060203 82 300 0.0 0.9 0.00 0.00 0.00 1 1015.7
20260902060104 82 300 0.0 0.9 0.00 0.00 0.00 1 1015.7
20260902060004 82 300 0.0 1.7 0.00 0.00 0.00 1 1015.6
20260902055924 83 300 0.0 1.7 0.00 0.00 0.00 1 1015.6
20260902055803 83 300 0.9 1.7 0.00 0.00 0.00 1 1015.6
20260902055703 83 300 0.9 1.7 0.00 0.00 0.00 1 1015.7
20260902055603 83 300 0.9 1.7 0.00 0.00 0.00 1 1015.6
20260902055504 83 299 0.9 1.7 0.00 0.00 0.00 1 1015.7
20260902055403 83 299 0.9 1.7 0.00 0.00 0.00 2 1015.6
20260902055306 83 300 0.9 1.7 0.00 0.00 0.00 2 1015.6
20260902055224 83 300 0.9 1.7 0.00 0.00 0.00 2 1015.6
20260902055124 83 300 0.9 1.7 0.00 0.00 0.00 4 1015.6
20260902055003 83 300 0.9 1.7 0.00 0.00 0.00 5 1015.6
20260902054903 83 300 0.9 1.7 0.00 0.00 0.00 6 1015.6
20260902054803 83 300 0.9 1.7 0.00 0.00 0.00 8 1015.5
20260902054725 83 300 0.9 1.7 0.00 0.00 0.00 8 1015.5
20260902054603 83 300 0.9 2.6 0.00 0.00 0.00 9 1015.6
20260902054503 84 300 0.9 2.6 0.00 0.00 0.00 10 1015.5
20260902054425 84 300 0.9 2.6 0.00 0.00 0.00 11 1015.5
20260902054304 84 300 0.9 2.6 0.00 0.00 0.00 11 1015.5
20260902054203 84 300 0.9 2.6 0.00 0.00 0.00 11 1015.5
20260902054103 84 300 0.9 2.6 0.00 0.00 0.00 12 1015.4
20260902054003 84 300 0.9 2.6 0.00 0.00 0.00 12 1015.4
20260902053903 84 300 0.9 2.6 0.00 0.00 0.00 12 1015.4
20260902053804 84 300 0.9 2.6 0.00 0.00 0.00 12 1015.4
20260902053703 84 300 0.9 2.6 0.00 0.00 0.00 13 1015.4
20260902053603 84 300 0.9 2.6 0.00 0.00 0.00 12 1015.4
20260902053503 84 300 0.9 2.6 0.00 0.00 0.00 13 1015.4
20260902053403 84 300 0.9 2.6 0.00 0.00 0.00 13 1015.3
20260902053304 84 300 0.9 2.6 0.00 0.00 0.00 13 1015.3
20260902053203 84 300 0.9 2.6 0.00 0.00 0.00 14 1015.3
20260902053103 84 300 0.9 2.6 0.00 0.00 0.00 14 1015.2
20260902053003 84 300 0.9 2.6 0.00 0.00 0.00 15 1015.3
20260902052903 84 300 0.9 2.6 0.00 0.00 0.00 16 1015.2
20260902052803 84 300 0.9 2.6 0.00 0.00 0.00 16 1015.3
20260902052703 84 300 0.9 2.6 0.00 0.00 0.00 16 1015.2
20260902052603 84 300 0.9 2.6 0.00 0.00 0.00 16 1015.2
20260902052503 84 300 0.9 2.6 0.00 0.00 0.00 17 1015.3
20260902052404 84 300 0.9 2.6 0.00 0.00 0.00 17 1015.2
20260902052306 84 300 1.7 2.6 0.00 0.00 0.00 17 1015.2
20260902052203 84 300 0.9 2.6 0.00 0.00 0.00 17 1015.3
20260902052103 84 300 0.9 2.6 0.00 0.00 0.00 17 1015.3
20260902052004 84 300 0.9 3.5 0.00 0.00 0.00 18 1015.3
20260902051903 84 300 0.9 3.5 0.00 0.00 0.00 17 1015.3
20260902051803 84 300 0.9 3.5 0.00 0.00 0.00 18 1015.2
20260902051703 84 300 0.9 3.5 0.00 0.00 0.00 18 1015.3
20260902051603 84 300 0.9 3.5 0.00 0.00 0.00 19 1015.3
20260902051504 84 300 0.9 3.5 0.00 0.00 0.00 19 1015.3
20260902051403 84 300 0.9 3.5 0.00 0.00 0.00 19 1015.3
20260902051303 84 300 0.9 3.5 0.00 0.00 0.00 20 1015.3
20260902051204 84 300 0.9 3.5 0.00 0.00 0.00 20 1015.3
20260902051103 84 299 0.9 3.5 0.00 0.00 0.00 20 1015.4
20260902051024 84 299 1.7 4.3 0.00 0.00 0.00 20 1015.3
20260902050925 84 299 1.7 4.3 0.00 0.00 0.00 20 1015.4
20260902050803 84 298 1.7 4.3 0.00 0.00 0.00 21 1015.4
20260902050704 84 298 1.7 4.3 0.00 0.00 0.00 21 1015.4
20260902050603 85 299 1.7 6.1 0.00 0.00 0.00 21 1015.4
20260902050504 85 299 1.7 6.1 0.00 0.00 0.00 22 1015.4
20260902050424 85 299 1.7 6.1 0.00 0.00 0.00 22 1015.4
20260902050325 85 299 1.7 6.1 0.00 0.00 0.00 22 1015.3
20260902050203 85 299 1.7 6.1 0.00 0.00 0.00 22 1015.4
20260902050103 85 299 1.7 6.1 0.00 0.00 0.00 23 1015.4
20260902050025 85 299 0.9 6.1 0.00 0.00 0.00 23 1015.4
20260902045904 85 299 1.7 6.1 0.00 0.00 0.00 23 1015.4
20260902045803 85 299 1.7 6.1 0.00 0.00 0.00 23 1015.3
20260902045703 85 299 1.7 6.1 0.00 0.00 0.00 23 1015.3
20260902045624 85 299 0.9 5.2 0.00 0.00 0.00 23 1015.3
20260902045503 85 298 0.9 3.5 0.00 0.00 0.00 23 1015.3
20260902045404 85 298 0.9 3.5 0.00 0.00 0.00 23 1015.4
20260902045306 85 298 0.9 3.5 0.00 0.00 0.00 23 1015.4
20260902045203 85 298 1.7 3.5 0.00 0.00 0.00 24 1015.4
20260902045103 85 298 1.7 3.5 0.00 0.00 0.00 24 1015.4
20260902045003 85 298 1.7 3.5 0.00 0.00 0.00 24 1015.4
20260902044924 85 298 1.7 3.5 0.00 0.00 0.00 24 1015.4
20260902044803 85 298 1.7 3.5 0.00 0.00 0.00 24 1015.4
20260902044703 85 297 1.7 3.5 0.00 0.00 0.00 24 1015.4
20260902044603 85 297 1.7 3.5 0.00 0.00 0.00 24 1015.4
20260902044524 85 297 0.9 3.5 0.00 0.00 0.00 25 1015.4
20260902044404 85 297 0.9 3.5 0.00 0.00 0.00 25 1015.4
20260902044304 85 297 0.9 3.5 0.00 0.00 0.00 25 1015.4
20260902044203 85 297 0.9 3.5 0.00 0.00 0.00 25 1015.4
20260902044103 85 297 0.9 3.5 0.00 0.00 0.00 26 1015.4
20260902044003 85 297 0.9 3.5 0.00 0.00 0.00 26 1015.4
20260902043903 85 296 0.9 3.5 0.00 0.00 0.00 26 1015.4
20260902043803 85 296 0.9 3.5 0.00 0.00 0.00 26 1015.4
20260902043703 85 296 0.9 3.5 0.00 0.00 0.00 27 1015.4
20260902043603 85 296 0.9 3.5 0.00 0.00 0.00 27 1015.4
20260902043503 86 296 0.9 3.5 0.00 0.00 0.00 27 1015.5
20260902043424 86 296 0.9 3.5 0.00 0.00 0.00 27 1015.5
20260902043325 86 296 0.9 3.5 0.00 0.00 0.00 27 1015.5
20260902043203 86 296 0.9 3.5 0.00 0.00 0.00 28 1015.5
20260902043104 86 296 0.9 3.5 0.00 0.00 0.00 28 1015.5
20260902043003 86 296 0.9 4.3 0.00 0.00 0.00 28 1015.5
20260902042903 86 296 0.9 4.3 0.00 0.00 0.00 29 1015.5
20260902042803 86 296 0.9 4.3 0.00 0.00 0.00 29 1015.5
20260902042703 86 296 0.9 4.3 0.00 0.00 0.00 29 1015.5
20260902042603 86 296 0.9 4.3 0.00 0.00 0.00 30 1015.5
20260902042503 86 296 0.9 4.3 0.00 0.00 0.00 30 1015.5
20260902042403 86 295 0.9 4.3 0.00 0.00 0.00 30 1015.5
20260902042308 86 295 0.9 4.3 0.00 0.00 0.00 31 1015.4
20260902042203 86 295 0.9 4.3 0.00 0.00 0.00 31 1015.4
20260902042125 86 295 0.9 4.3 0.00 0.00 0.00 31 1015.4
20260902042003 86 294 0.9 2.6 0.00 0.00 0.00 31 1015.5
20260902041903 86 294 0.9 2.6 0.00 0.00 0.00 32 1015.5
20260902041803 86 295 0.9 2.6 0.00 0.00 0.00 32 1015.4
20260902041703 86 295 0.9 2.6 0.00 0.00 0.00 32 1015.5
20260902041603 86 295 0.9 2.6 0.00 0.00 0.00 32 1015.4
20260902041504 86 295 0.9 2.6 0.00 0.00 0.00 32 1015.4
20260902041424 86 295 0.9 2.6 0.00 0.00 0.00 32 1015.4
20260902041304 86 295 0.9 2.6 0.00 0.00 0.00 33 1015.5
20260902041203 86 295 0.9 2.6 0.00 0.00 0.00 33 1015.4
20260902041104 87 295 0.9 2.6 0.00 0.00 0.00 33 1015.4
20260902041003 87 295 0.9 2.6 0.00 0.00 0.00 33 1015.4
20260902040903 87 295 0.9 2.6 0.00 0.00 0.00 33 1015.4
20260902040803 87 295 0.9 2.6 0.00 0.00 0.00 33 1015.4
20260902040703 87 295 0.9 2.6 0.00 0.00 0.00 34 1015.4
20260902040624 87 295 0.9 2.6 0.00 0.00 0.00 34 1015.5
20260902040503 87 295 0.9 2.6 0.00 0.00 0.00 34 1015.4
20260902040403 87 295 0.9 2.6 0.00 0.00 0.00 34 1015.4
20260902040303 87 295 0.9 2.6 0.00 0.00 0.00 34 1015.3
20260902040203 87 295 0.9 2.6 0.00 0.00 0.00 34 1015.3
20260902040103 87 295 0.9 2.6 0.00 0.00 0.00 35 1015.2
20260902040003 87 295 0.9 2.6 0.00 0.00 0.00 35 1015.2
20260902035903 87 295 0.9 2.6 0.00 0.00 0.00 35 1015.1
20260902035803 87 295 0.9 2.6 0.00 0.00 0.00 35 1015.1
20260902035703 87 295 0.9 2.6 0.00 0.00 0.00 36 1015.2
20260902035603 87 295 0.9 2.6 0.00 0.00 0.00 36 1015.1
20260902035503 87 295 0.9 2.6 0.00 0.00 0.00 36 1015.1
20260902035425 87 295 0.9 2.6 0.00 0.00 0.00 36 1015.1
20260902035324 87 295 0.9 2.6 0.00 0.00 0.00 36 1015.1
20260902035203 87 295 0.9 2.6 0.00 0.00 0.00 36 1015.0
20260902035124 87 295 0.9 2.6 0.00 0.00 0.00 36 1015.1
20260902035024 87 295 0.9 2.6 0.00 0.00 0.00 37 1015.1
20260902034903 87 295 0.9 2.6 0.00 0.00 0.00 37 1015.1
20260902034803 87 295 0.9 2.6 0.00 0.00 0.00 37 1015.1
20260902034703 87 295 0.9 2.6 0.00 0.00 0.00 37 1015.0
20260902034603 87 295 0.9 2.6 0.00 0.00 0.00 37 1015.1
20260902034503 87 295 0.9 2.6 0.00 0.00 0.00 38 1015.0
20260902034424 87 295 0.9 2.6 0.00 0.00 0.00 38 1015.1
20260902034304 87 295 0.9 2.6 0.00 0.00 0.00 38 1015.0
20260902034224 87 295 0.9 2.6 0.00 0.00 0.00 38 1015.0
20260902034104 87 295 0.9 2.6 0.00 0.00 0.00 38 1015.0
20260902034003 87 295 0.9 2.6 0.00 0.00 0.00 38 1015.0
20260902033903 87 295 0.9 1.7 0.00 0.00 0.00 38 1015.0
20260902033803 87 295 0.9 1.7 0.00 0.00 0.00 39 1015.0
20260902033703 87 295 0.9 1.7 0.00 0.00 0.00 39 1015.0
20260902033603 87 295 0.9 1.7 0.00 0.00 0.00 39 1015.0
20260902033504 87 295 0.0 1.7 0.00 0.00 0.00 39 1015.0
20260902033403 87 295 0.0 1.7 0.00 0.00 0.00 39 1015.0
20260902033303 87 295 0.0 1.7 0.00 0.00 0.00 40 1015.0
20260902033203 87 295 0.0 1.7 0.00 0.00 0.00 40 1014.9
20260902033103 87 295 0.0 1.7 0.00 0.00 0.00 40 1014.9
20260902033003 87 295 0.0 1.7 0.00 0.00 0.00 40 1014.9
20260902032903 87 295 0.0 1.7 0.00 0.00 0.00 40 1014.9
20260902032804 87 295 0.0 1.7 0.00 0.00 0.00 40 1014.9
20260902032703 87 295 0.0 1.7 0.00 0.00 0.00 41 1014.8
20260902032603 87 295 0.0 1.7 0.00 0.00 0.00 41 1014.8
20260902032503 87 295 0.0 1.7 0.00 0.00 0.00 41 1014.9
20260902032403 87 295 0.0 1.7 0.00 0.00 0.00 41 1014.8
20260902032324 87 295 0.0 1.7 0.00 0.00 0.00 41 1014.8
20260902032203 88 295 0.9 1.7 0.00 0.00 0.00 41 1014.8
20260902032103 88 295 0.9 1.7 0.00 0.00 0.00 42 1014.7
20260902032024 88 295 0.9 1.7 0.00 0.00 0.00 42 1014.7
20260902031925 88 295 0.9 1.7 0.00 0.00 0.00 42 1014.7
20260902031803 88 295 0.9 1.7 0.00 0.00 0.00 42 1014.7
20260902031703 88 295 0.9 1.7 0.00 0.00 0.00 42 1014.7
20260902031603 88 295 0.9 1.7 0.00 0.00 0.00 42 1014.7
20260902031505 88 295 0.9 1.7 0.00 0.00 0.00 42 1014.6
20260902031424 88 295 0.9 1.7 0.00 0.00 0.00 42 1014.7
20260902031303 88 295 0.9 1.7 0.00 0.00 0.00 42 1014.7
20260902031203 88 295 0.9 1.7 0.00 0.00 0.00 43 1014.6
20260902031103 88 295 0.9 1.7 0.00 0.00 0.00 43 1014.6
20260902031003 88 295 0.9 1.7 0.00 0.00 0.00 43 1014.6
20260902030903 88 295 0.9 4.3 0.00 0.00 0.00 43 1014.5
20260902030803 88 296 0.9 4.3 0.00 0.00 0.00 43 1014.5
20260902030703 88 296 0.9 4.3 0.00 0.00 0.00 43 1014.5
20260902030603 88 296 0.9 4.3 0.00 0.00 0.00 43 1014.5
20260902030503 88 296 0.9 4.3 0.00 0.00 0.00 43 1014.5
20260902030403 88 296 0.9 4.3 0.00 0.00 0.00 43 1014.4
20260902030324 88 296 0.9 4.3 0.00 0.00 0.00 43 1014.4
20260902030203 88 296 0.9 4.3 0.00 0.00 0.00 43 1014.4
20260902030103 88 296 0.9 4.3 0.00 0.00 0.00 44 1014.4
20260902030003 88 296 0.9 4.3 0.00 0.00 0.00 44 1014.4
20260902025903 88 297 0.9 3.5 0.00 0.00 0.00 44 1014.4
20260902025804 88 297 0.9 3.5 0.00 0.00 0.00 44 1014.4
20260902025704 88 297 0.9 3.5 0.00 0.00 0.00 44 1014.3
20260902025603 89 297 0.9 3.5 0.00 0.00 0.00 44 1014.4
20260902025503 89 297 0.9 3.5 0.00 0.00 0.00 44 1014.3
20260902025403 89 297 0.9 3.5 0.00 0.00 0.00 44 1014.3
20260902025324 89 297 0.9 3.5 0.00 0.00 0.00 44 1014.4
20260902025203 89 297 0.9 3.5 0.00 0.00 0.00 44 1014.3
20260902025103 89 297 0.9 3.5 0.00 0.00 0.00 44 1014.3
20260902025003 89 297 0.9 3.5 0.00 0.00 0.00 44 1014.2
20260902024903 89 297 0.9 3.5 0.00 0.00 0.00 44 1014.2
20260902024803 89 297 1.7 3.5 0.00 0.00 0.00 45 1014.2
20260902024724 89 296 1.7 3.5 0.00 0.00 0.00 45 1014.2
20260902024603 89 296 0.9 3.5 0.00 0.00 0.00 45 1014.2
20260902024504 89 296 0.9 3.5 0.00 0.00 0.00 45 1014.2
20260902024403 89 296 0.9 3.5 0.00 0.00 0.00 45 1014.1
20260902024303 89 296 0.9 3.5 0.00 0.00 0.00 45 1014.1
20260902024203 89 296 0.9 3.5 0.00 0.00 0.00 45 1014.1
20260902024103 89 296 0.9 3.5 0.00 0.00 0.00 45 1014.1
20260902024004 89 295 0.9 3.5 0.00 0.00 0.00 45 1014.1
20260902023904 89 295 0.9 3.5 0.00 0.00 0.00 45 1014.1
20260902023803 89 295 0.9 2.6 0.00 0.00 0.00 45 1014.0
20260902023703 89 295 0.9 2.6 0.00 0.00 0.00 45 1014.1
20260902023603 89 295 0.9 2.6 0.00 0.00 0.00 45 1014.0
20260902023504 89 295 0.9 2.6 0.00 0.00 0.00 45 1014.0
20260902023404 89 295 0.9 2.6 0.00 0.00 0.00 45 1014.0
20260902023304 89 295 0.9 2.6 0.00 0.00 0.00 45 1014.0
20260902023203 89 295 0.9 3.5 0.00 0.00 0.00 45 1013.9
20260902023103 89 295 0.9 3.5 0.00 0.00 0.00 45 1014.0
20260902023003 89 295 0.9 3.5 0.00 0.00 0.00 45 1013.9
20260902022903 90 295 0.9 3.5 0.00 0.00 0.00 45 1013.9
20260902022803 90 295 0.9 3.5 0.00 0.00 0.00 45 1013.9
20260902022705 90 295 0.9 3.5 0.00 0.00 0.00 45 1013.9
20260902022603 90 295 0.9 3.5 0.00 0.00 0.00 45 1013.9
20260902022524 90 295 0.9 3.5 0.00 0.00 0.00 45 1013.9
20260902022403 90 295 0.9 3.5 0.00 0.00 0.00 45 1013.8
20260902022306 90 295 0.9 3.5 0.00 0.00 0.00 45 1013.8
20260902022203 90 295 0.9 3.5 0.00 0.00 0.00 45 1013.8
20260902022103 90 295 0.9 3.5 0.00 0.00 0.00 46 1013.8
20260902022024 90 295 0.9 3.5 0.00 0.00 0.00 46 1013.8
20260902021903 90 294 0.9 4.3 0.00 0.00 0.00 46 1013.8
20260902021824 90 294 1.7 4.3 0.00 0.00 0.00 46 1013.8
20260902021704 90 294 1.7 4.3 0.00 0.00 0.00 46 1013.8
20260902021603 90 294 1.7 4.3 0.00 0.00 0.00 46 1013.8
20260902021503 90 294 1.7 4.3 0.00 0.00 0.00 46 1013.7
20260902021403 90 294 1.7 4.3 0.00 0.00 0.00 46 1013.7
20260902021303 90 294 1.7 4.3 0.00 0.00 0.00 46 1013.6
20260902021203 90 295 1.7 4.3 0.00 0.00 0.00 46 1013.6
20260902021103 90 297 1.7 5.2 0.00 0.00 0.00 46 1013.6
20260902021003 90 299 1.7 5.2 0.00 0.00 0.00 46 1013.6
20260902020903 90 301 1.7 5.2 0.00 0.00 0.00 46 1013.6
20260902020824 90 303 1.7 5.2 0.00 0.00 0.00 46 1013.6
20260902020704 90 304 1.7 5.2 0.00 0.00 0.00 46 1013.6
20260902020603 90 306 1.7 5.2 0.00 0.00 0.00 46 1013.6
20260902020503 90 307 1.7 5.2 0.00 0.00 0.00 46 1013.6
20260902020425 90 307 1.7 5.2 0.00 0.00 0.00 46 1013.5
20260902020303 90 308 1.7 5.2 0.00 0.00 0.00 46 1013.5
20260902020203 90 309 1.7 5.2 0.00 0.00 0.00 46 1013.5
20260902020103 90 308 1.7 5.2 0.00 0.00 0.00 46 1013.5
20260902020003 90 310 2.6 5.2 0.00 0.00 0.00 46 1013.4
20260902015903 90 310 2.6 5.2 0.00 0.00 0.00 46 1013.4
20260902015803 90 312 2.6 5.2 0.00 0.00 0.00 46 1013.4
20260902015703 91 313 2.6 5.2 0.00 0.00 0.00 46 1013.4
20260902015603 91 315 2.6 5.2 0.00 0.00 0.00 46 1013.4
20260902015503 91 313 2.6 5.2 0.00 0.00 0.00 46 1013.4
20260902015403 91 312 2.6 5.2 0.00 0.00 0.00 46 1013.4
20260902015305 91 310 2.6 5.2 0.00 0.00 0.00 46 1013.3
20260902015206 91 307 2.6 6.1 0.00 0.00 0.00 46 1013.3
20260902015103 91 305 2.6 6.1 0.00 0.00 0.00 46 1013.3
20260902015003 91 298 2.6 6.1 0.00 0.00 0.00 46 1013.3
20260902014924 91 295 2.6 6.1 0.00 0.00 0.00 46 1013.3
20260902014803 91 289 1.7 6.1 0.00 0.00 0.00 46 1013.3
20260902014703 91 283 1.7 6.1 0.00 0.00 0.00 46 1013.3
20260902014624 91 280 1.7 6.1 0.00 0.00 0.00 46 1013.2
20260902014524 91 275 1.7 6.1 0.00 0.00 0.00 46 1013.2
20260902014403 91 272 1.7 6.1 0.00 0.00 0.00 46 1013.2
20260902014325 91 269 1.7 6.1 0.00 0.00 0.00 46 1013.2
20260902014203 91 266 1.7 4.3 0.00 0.00 0.00 45 1013.2
20260902014103 91 264 1.7 4.3 0.00 0.00 0.00 45 1013.2
20260902014003 91 263 1.7 4.3 0.00 0.00 0.00 46 1013.2
20260902013903 91 263 1.7 4.3 0.00 0.00 0.00 46 1013.2
20260902013803 91 263 1.7 4.3 0.00 0.00 0.00 46 1013.2
20260902013703 91 262 1.7 4.3 0.00 0.00 0.00 45 1013.2
20260902013603 91 262 0.9 4.3 0.00 0.00 0.00 45 1013.2
20260902013503 91 262 1.7 4.3 0.00 0.00 0.00 45 1013.2
20260902013404 91 262 1.7 4.3 0.00 0.00 0.00 45 1013.2
20260902013303 91 261 1.7 4.3 0.00 0.00 0.00 45 1013.2
20260902013224 91 261 1.7 3.5 0.00 0.00 0.00 45 1013.1
20260902013103 91 261 1.7 3.5 0.00 0.00 0.00 45 1013.1
20260902013003 91 260 1.7 4.3 0.00 0.00 0.00 45 1013.1
20260902012903 91 259 1.7 4.3 0.00 0.00 0.00 45 1013.1
20260902012824 92 259 1.7 4.3 0.00 0.00 0.00 45 1013.0
20260902012703 92 258 1.7 4.3 0.00 0.00 0.00 45 1013.0
20260902012603 92 258 1.7 4.3 0.00 0.00 0.00 45 1013.0
20260902012504 92 257 1.7 4.3 0.00 0.00 0.00 45 1013.0
20260902012424 92 257 1.7 4.3 0.00 0.00 0.00 45 1013.0
20260902012309 92 256 1.7 4.3 0.00 0.00 0.00 45 1013.0
20260902012203 92 255 1.7 4.3 0.00 0.00 0.00 45 1013.0
20260902012103 92 255 1.7 4.3 0.00 0.00 0.00 45 1012.9
20260902012003 92 255 1.7 4.3 0.00 0.00 0.00 45 1013.0
20260902011903 92 255 1.7 4.3 0.00 0.00 0.00 45 1013.0
20260902011803 92 255 1.7 4.3 0.00 0.00 0.00 45 1013.0
20260902011703 92 256 1.7 5.2 0.00 0.00 0.00 45 1013.0
20260902011603 92 255 1.7 5.2 0.00 0.00 0.00 45 1013.0
20260902011503 92 255 1.7 5.2 0.00 0.00 0.00 45 1013.0
20260902011403 92 255 1.7 5.2 0.00 0.00 0.00 45 1013.0
20260902011303 92 254 1.7 5.2 0.00 0.00 0.00 45 1013.0
20260902011203 92 254 1.7 5.2 0.00 0.00 0.00 44 1013.0
20260902011103 92 255 1.7 5.2 0.00 0.00 0.00 45 1013.0
20260902011003 92 256 1.7 5.2 0.00 0.00 0.00 44 1013.0
20260902010903 92 257 2.6 6.1 0.00 0.00 0.00 44 1013.0
20260902010803 92 259 2.6 6.1 0.00 0.00 0.00 44 1013.0
20260902010703 92 259 1.7 6.1 0.00 0.00 0.00 44 1013.0
20260902010603 92 260 1.7 6.1 0.00 0.00 0.00 44 1012.9
20260902010503 92 260 2.6 6.1 0.00 0.00 0.00 44 1012.9
20260902010403 93 261 2.6 6.1 0.00 0.00 0.00 44 1012.9
20260902010303 93 261 2.6 7.0 0.00 0.00 0.00 44 1012.9
20260902010203 93 260 2.6 7.0 0.00 0.00 0.00 44 1012.9
20260902010004 93 259 2.6 7.0 0.00 0.00 0.00 44 1013.0
20260902005904 93 259 3.5 8.7 0.00 0.00 0.00 44 1012.9
20260902005824 93 260 3.5 8.7 0.00 0.00 0.00 44 1012.9
20260902005724 93 258 3.5 8.7 0.00 0.00 0.00 44 1013.0
20260902005604 93 257 3.5 8.7 0.00 0.00 0.00 44 1013.0
20260902005503 93 258 3.5 8.7 0.00 0.00 0.00 44 1013.0
20260902005403 93 258 3.5 8.7 0.00 0.00 0.00 44 1013.0
20260902005306 93 258 3.5 8.7 0.00 0.00 0.00 43 1013.0
20260902005204 93 258 3.5 8.7 0.00 0.00 0.00 43 1013.0
20260902005103 94 258 3.5 8.7 0.00 0.00 0.00 43 1013.0
20260902005003 94 258 3.5 8.7 0.00 0.00 0.00 43 1013.0
20260902004903 94 257 3.5 7.8 0.00 0.00 0.00 43 1013.0
20260902004804 94 256 3.5 7.8 0.00 0.00 0.00 43 1013.0
20260902004703 94 257 3.5 7.8 0.00 0.00 0.00 43 1013.0
20260902004603 94 257 2.6 7.8 0.00 0.00 0.00 42 1013.0
20260902004503 94 257 2.6 7.8 0.00 0.00 0.00 42 1013.0
20260902004403 94 256 2.6 7.8 0.00 0.00 0.00 42 1013.0
20260902004303 94 256 2.6 7.8 0.00 0.00 0.00 41 1013.0
20260902004203 94 254 2.6 6.1 0.00 0.00 0.00 41 1013.1
20260902004103 94 252 2.6 6.1 0.00 0.00 0.00 41 1013.1
20260902004003 94 250 2.6 6.1 0.00 0.00 0.00 41 1013.1
20260902003903 94 249 2.6 6.1 0.00 0.00 0.00 41 1013.0
20260902003803 94 246 2.6 6.1 0.00 0.00 0.00 41 1013.1
20260902003703 95 244 2.6 6.1 0.00 0.00 0.00 41 1013.1
20260902003603 95 242 2.6 6.1 0.00 0.00 0.00 41 1013.0
20260902003503 95 238 2.6 6.1 0.00 0.00 0.00 41 1013.1
20260902003424 95 237 2.6 6.1 0.00 0.00 0.00 40 1013.1
20260902003303 95 230 2.6 5.2 0.00 0.00 0.00 40 1013.0
20260902003203 95 230 2.6 6.1 0.00 0.00 0.00 40 1013.0
20260902003104 95 230 2.6 6.1 0.00 0.00 0.00 40 1013.0
20260902003003 95 230 2.6 6.1 0.00 0.00 0.00 40 1013.1
20260902002903 95 231 2.6 6.1 0.00 0.00 0.00 40 1013.0
20260902002803 95 230 2.6 6.1 0.00 0.00 0.00 40 1013.1
20260902002703 95 229 2.6 7.0 0.00 0.00 0.00 40 1013.0
20260902002603 95 231 2.6 9.6 0.00 0.00 0.00 40 1013.0
20260902002503 95 234 2.6 9.6 0.00 0.00 0.00 40 1013.0
20260902002403 95 237 2.6 9.6 0.00 0.00 0.00 40 1013.0
20260902002306 95 240 3.5 9.6 0.00 0.00 0.00 40 1013.0
20260902002204 95 240 3.5 9.6 0.00 0.00 0.00 40 1012.9
20260902002103 95 243 3.5 9.6 0.00 0.00 0.00 40 1013.0
20260902002003 95 244 3.5 9.6 0.00 0.00 0.00 40 1012.9
20260902001903 95 246 3.5 9.6 0.00 0.00 0.00 40 1013.0
20260902001803 95 246 3.5 9.6 0.00 0.00 0.00 40 1013.0
20260902001703 95 249 3.5 9.6 0.00 0.00 0.00 40 1013.0
20260902001603 95 249 3.5 7.0 0.00 0.00 0.00 40 1013.0
20260902001503 95 250 3.5 7.0 0.00 0.00 0.00 40 1013.0
20260902001403 95 250 3.5 8.7 0.00 0.00 0.00 40 1012.9
20260902001303 95 249 4.3 8.7 0.00 0.00 0.00 40 1013.0
20260902001224 95 249 4.3 8.7 0.00 0.00 0.00 40 1013.0
20260902001103 95 248 4.3 10.4 0.00 0.00 0.00 40 1013.0
20260902001003 95 247 4.3 10.4 0.00 0.00 0.00 40 1013.0
20260902000904 95 245 4.3 10.4 0.00 0.00 0.00 40 1013.0
20260902000803 96 244 4.3 10.4 0.00 0.00 0.00 40 1013.0
20260902000703 96 242 5.2 10.4 0.00 0.00 0.00 40 1013.0
20260902000624 96 242 4.3 10.4 0.00 0.00 0.00 40 1013.0
20260902000503 96 240 4.3 10.4 0.00 0.00 0.00 39 1013.1
20260902000403 96 241 4.3 10.4 0.00 0.00 0.00 40 1013.0
20260902000304 96 242 4.3 10.4 0.00 0.00 0.00 39 1013.0
20260902000204 96 242 4.3 10.4 0.00 0.00 0.00 39 1013.0
20260902000103 96 241 3.5 9.6 0.00 0.00 0.00 39 1013.0
20260902000003 96 243 3.5 9.6 0.00 0.00 0.00 39 1013.0
20260901235903 96 246 3.5 9.6 0.00 0.00 0.00 40 1013.0
20260901235803 96 248 3.5 9.6 0.00 0.00 0.00 39 1013.0
20260901235703 96 252 3.5 9.6 0.00 0.00 0.00 39 1013.0
20260901235603 96 254 3.5 7.8 0.00 0.00 0.00 39 1013.0
20260901235524 97 255 2.6 7.8 0.00 0.00 0.00 39 1013.0
20260901235403 97 257 2.6 5.2 0.00 0.00 0.00 39 1013.0
20260901235324 97 258 2.6 6.1 0.00 0.00 0.00 39 1013.0
20260901235203 97 255 2.6 6.1 0.00 0.00 0.00 38 1013.0
20260901235104 97 252 3.5 6.1 0.00 0.00 0.00 39 1013.0
20260901235003 97 249 3.5 7.0 0.00 0.00 0.00 39 1013.0
20260901234903 97 248 3.5 7.0 0.00 0.00 0.00 38 1013.0
20260901234803 97 248 3.5 7.0 0.00 0.00 0.00 38 1012.9
20260901234703 97 248 4.3 7.8 0.00 0.00 0.00 39 1012.9
20260901234624 97 247 4.3 7.8 0.00 0.00 0.00 39 1012.9
20260901234503 97 248 4.3 7.8 0.00 0.00 0.00 38 1012.9
20260901234424 97 248 4.3 7.8 0.00 0.00 0.00 38 1012.9
20260901234303 97 248 4.3 7.8 0.00 0.00 0.00 38 1013.0
20260901234203 97 249 4.3 7.8 0.00 0.00 0.00 38 1013.0
20260901234103 97 252 4.3 7.8 0.00 0.00 0.00 38 1013.0
20260901234003 97 255 4.3 7.8 0.00 0.00 0.00 39 1013.0
20260901233903 97 257 4.3 7.8 0.00 0.00 0.00 38 1012.9
20260901233824 97 257 4.3 7.8 0.00 0.00 0.00 38 1013.0
20260901233703 97 257 4.3 7.8 0.00 0.00 0.00 38 1012.9
20260901233603 97 258 4.3 7.8 0.00 0.00 0.00 38 1012.9
20260901233503 97 256 4.3 7.8 0.00 0.00 0.00 38 1012.9
20260901233403 97 255 4.3 7.8 0.00 0.00 0.00 38 1012.9
20260901233303 97 255 4.3 7.8 0.00 0.00 0.00 38 1012.9
20260901233203 97 256 4.3 8.7 0.00 0.00 0.00 38 1012.8
20260901233103 97 256 4.3 8.7 0.00 0.00 0.00 38 1012.9
20260901233003 97 257 4.3 8.7 0.00 0.00 0.00 38 1012.8
20260901232903 97 259 4.3 8.7 0.00 0.00 0.00 38 1012.8
20260901232803 97 262 4.3 8.7 0.00 0.00 0.00 38 1012.9
20260901232703 97 260 4.3 8.7 0.00 0.00 0.00 38 1012.8
20260901232604 98 259 3.5 8.7 0.00 0.00 0.00 38 1012.8
20260901232503 98 258 3.5 8.7 0.00 0.00 0.00 38 1012.8
20260901232403 98 256 3.5 8.7 0.00 0.00 0.00 37 1012.8
20260901232324 98 253 3.5 8.7 0.00 0.00 0.00 37 1012.8
20260901232224 98 251 2.6 8.7 0.00 0.00 0.00 37 1012.9
20260901232103 98 247 2.6 6.1 0.00 0.00 0.00 37 1012.8
20260901232024 98 245 3.5 6.1 0.00 0.00 0.00 37 1012.9
20260901231924 98 236 3.5 7.0 0.00 0.00 0.00 38 1012.9
20260901231804 98 232 3.5 7.0 0.00 0.00 0.00 38 1012.9
20260901231703 98 230 2.6 7.0 0.00 0.00 0.00 38 1012.9
20260901231604 98 232 3.5 7.8 0.00 0.00 0.00 38 1012.8
20260901231503 98 234 3.5 7.8 0.00 0.00 0.00 37 1012.8
20260901231403 98 236 3.5 7.8 0.00 0.00 0.00 37 1012.8
20260901231324 98 237 3.5 7.8 0.00 0.00 0.00 37 1012.8
20260901231203 98 238 3.5 7.8 0.00 0.00 0.00 37 1012.8
20260901231103 98 239 3.5 7.8 0.00 0.00 0.00 37 1012.9
20260901231003 98 239 2.6 7.8 0.00 0.00 0.00 37 1012.8
20260901230903 98 244 2.6 7.8 0.00 0.00 0.00 37 1012.9
20260901230803 98 246 3.5 7.8 0.00 0.00 0.00 37 1012.9
20260901230703 98 247 2.6 7.8 0.00 0.00 0.00 37 1012.9
20260901230603 98 249 2.6 7.8 0.00 0.00 0.00 38 1012.9
20260901230524 98 248 2.6 7.0 0.00 0.00 0.00 38 1012.9
20260901230403 98 250 2.6 7.0 0.00 0.00 0.00 38 1012.9
20260901230303 98 255 2.6 7.0 0.00 0.00 0.00 38 1012.9
20260901230203 98 261 2.6 7.0 0.00 0.00 0.00 38 1012.9
20260901230124 98 267 2.6 7.0 0.00 0.00 0.00 38 1012.9
20260901230004 98 280 2.6 7.0 0.00 0.00 0.00 38 1012.9
20260901225903 98 291 2.6 7.0 0.00 0.00 0.00 38 1012.9
20260901225803 98 307 3.5 11.3 0.00 0.00 0.00 38 1012.9
20260901225703 98 315 3.5 11.3 0.00 0.00 0.00 38 1012.8
20260901225603 98 322 3.5 11.3 0.00 0.00 0.00 38 1012.9
20260901225503 98 323 3.5 11.3 0.00 0.00 0.00 38 1012.9
20260901225403 98 320 3.5 11.3 0.00 0.00 0.00 38 1012.9
20260901225306 98 314 3.5 11.3 0.00 0.00 0.00 38 1012.9
20260901225203 98 301 3.5 11.3 0.00 0.00 0.00 38 1012.9
20260901225103 98 292 3.5 11.3 0.00 0.00 0.00 38 1012.9
20260901225003 97 282 3.5 11.3 0.00 0.00 0.00 38 1012.9
20260901224903 97 274 3.5 11.3 0.00 0.00 0.00 38 1012.9
20260901224803 97 260 2.6 8.7 0.00 0.00 0.00 39 1012.8
20260901224724 97 254 2.6 7.0 0.00 0.00 0.00 39 1012.9
20260901224603 97 245 2.6 7.0 0.00 0.00 0.00 39 1012.9
20260901224503 97 243 2.6 7.0 0.00 0.00 0.00 39 1012.9
20260901224403 97 242 2.6 5.2 0.00 0.00 0.00 39 1012.9
20260901224303 97 242 2.6 5.2 0.00 0.00 0.00 39 1012.9
20260901224203 97 243 2.6 5.2 0.00 0.00 0.00 39 1012.9
20260901224125 97 243 3.5 5.2 0.00 0.00 0.00 38 1012.9
20260901224003 97 247 3.5 11.3 0.00 0.00 0.00 38 1013.0
20260901223924 97 248 3.5 11.3 0.00 0.00 0.00 38 1013.0
20260901223803 98 250 3.5 11.3 0.00 0.00 0.00 38 1013.0
20260901223703 98 251 4.3 11.3 0.00 0.00 0.00 38 1013.1
20260901223624 98 252 4.3 11.3 0.00 0.00 0.00 39 1013.1
20260901223503 98 253 4.3 11.3 0.00 0.00 0.00 39 1013.1
20260901223424 97 253 3.5 11.3 0.00 0.00 0.00 39 1013.0
20260901223303 97 253 3.5 11.3 0.00 0.00 0.00 39 1013.1
20260901223203 97 252 3.5 11.3 0.00 0.00 0.00 39 1013.0
20260901223103 97 251 3.5 11.3 0.00 0.00 0.00 39 1013.0
20260901223024 97 250 3.5 11.3 0.00 0.00 0.00 39 1013.1
20260901222903 97 247 3.5 7.8 0.00 0.00 0.00 39 1013.1
20260901222803 97 245 3.5 7.0 0.00 0.00 0.00 39 1013.1
20260901222703 97 245 3.5 8.7 0.00 0.00 0.00 39 1013.1
20260901222624 97 245 3.5 8.7 0.00 0.00 0.00 39 1013.1
20260901222503 97 244 3.5 8.7 0.00 0.00 0.00 39 1013.1
20260901222403 97 245 3.5 8.7 0.00 0.00 0.00 39 1013.1
20260901222306 97 245 3.5 8.7 0.00 0.00 0.00 39 1013.1
20260901222224 97 246 3.5 8.7 0.00 0.00 0.00 39 1013.1
20260901222103 97 249 4.3 8.7 0.00 0.00 0.00 39 1013.1
20260901222003 97 249 4.3 8.7 0.00 0.00 0.00 39 1013.0
20260901221903 97 251 3.5 8.7 0.00 0.00 0.00 38 1013.0
20260901221824 97 251 3.5 8.7 0.00 0.00 0.00 38 1013.0
20260901221703 98 246 3.5 7.8 0.00 0.00 0.00 38 1013.0
20260901221603 98 246 3.5 7.8 0.00 0.00 0.00 38 1013.0
20260901221503 98 246 3.5 7.8 0.00 0.00 0.00 38 1013.0
20260901221403 98 245 4.3 8.7 0.00 0.00 0.00 38 1013.0
20260901221303 98 243 4.3 8.7 0.00 0.00 0.00 37 1012.9
20260901221203 98 242 4.3 8.7 0.00 0.00 0.00 37 1013.0
20260901221124 99 242 4.3 8.7 0.00 0.00 0.00 37 1013.1
20260901221003 99 242 3.5 8.7 0.00 0.00 0.00 37 1013.0
20260901220924 99 240 3.5 8.7 0.00 0.00 0.00 38 1013.0
20260901220824 99 240 4.3 8.7 0.00 0.00 0.00 37 1013.0
20260901220703 99 244 3.5 8.7 0.00 0.00 0.00 37 1013.0
20260901220603 99 242 3.5 8.7 0.00 0.00 0.00 37 1013.0
20260901220503 99 239 3.5 8.7 0.00 0.00 0.00 37 1013.0
20260901220403 99 235 3.5 7.8 0.00 0.00 0.00 37 1013.0
20260901220303 99 238 3.5 7.8 0.00 0.00 0.00 37 1013.0
20260901220205 99 240 3.5 7.8 0.00 0.00 0.00 37 1013.0
20260901220124 99 239 3.5 7.8 0.00 0.00 0.00 37 1013.0
20260901220003 98 238 3.5 7.8 0.00 0.00 0.00 37 1013.0
20260901215903 98 233 3.5 7.8 0.00 0.00 0.00 37 1013.0
20260901215803 98 228 3.5 7.8 0.00 0.00 0.00 37 1013.0
20260901215703 99 220 4.3 7.8 0.00 0.00 0.00 37 1013.0
20260901215603 99 214 4.3 7.8 0.00 0.00 0.00 37 1013.0
20260901215524 98 214 4.3 7.8 0.00 0.00 0.00 37 1013.1
20260901215403 98 211 4.3 7.8 0.00 0.00 0.00 37 1013.0
20260901215306 98 210 3.5 7.8 0.00 0.00 0.00 37 1013.1
20260901215203 98 208 3.5 7.8 0.00 0.00 0.00 37 1013.1
20260901215124 98 209 3.5 7.8 0.00 0.00 0.00 37 1013.1
20260901215003 98 212 3.5 7.8 0.00 0.00 0.00 37 1013.1
20260901214903 98 216 3.5 7.8 0.00 0.00 0.00 37 1013.1
20260901214803 98 220 3.5 7.8 0.00 0.00 0.00 37 1013.1
20260901214703 98 226 3.5 7.8 0.00 0.00 0.00 37 1013.0
20260901214603 98 234 3.5 7.8 0.00 0.00 0.00 37 1013.1
20260901214503 98 239 2.6 7.8 0.00 0.00 0.00 38 1013.1
20260901214403 98 245 2.6 7.8 0.00 0.00 0.00 37 1013.1
20260901214303 98 245 3.5 7.8 0.00 0.00 0.00 37 1013.1
20260901214224 98 246 3.5 7.8 0.00 0.00 0.00 37 1013.1
20260901214103 98 246 3.5 9.6 0.00 0.00 0.00 38 1013.1
20260901214003 98 249 3.5 9.6 0.00 0.00 0.00 38 1013.1
20260901213925 98 250 3.5 9.6 0.00 0.00 0.00 38 1013.1
20260901213824 98 251 3.5 9.6 0.00 0.00 0.00 38 1013.1
20260901213703 97 252 3.5 9.6 0.00 0.00 0.00 39 1013.2
20260901213603 97 253 3.5 9.6 0.00 0.00 0.00 39 1013.2
20260901213503 97 254 3.5 9.6 0.00 0.00 0.00 38 1013.2
20260901213424 97 255 3.5 9.6 0.00 0.00 0.00 38 1013.2
20260901213324 97 255 3.5 9.6 0.00 0.00 0.00 38 1013.2
20260901213203 97 250 3.5 7.8 0.00 0.00 0.00 39 1013.1
20260901213124 97 247 2.6 7.8 0.00 0.00 0.00 39 1013.1
20260901213003 97 237 2.6 7.8 0.00 0.00 0.00 38 1013.1
20260901212903 97 232 2.6 7.0 0.00 0.00 0.00 38 1013.1
20260901212803 97 226 2.6 6.1 0.00 0.00 0.00 38 1013.1
20260901212703 97 220 2.6 6.1 0.00 0.00 0.00 38 1013.1
20260901212603 97 215 2.6 6.1 0.00 0.00 0.00 38 1013.1
20260901212503 97 209 2.6 6.1 0.00 0.00 0.00 37 1013.2
20260901212403 97 205 2.6 6.1 0.00 0.00 0.00 38 1013.1
20260901212306 97 193 1.7 5.2 0.00 0.00 0.00 38 1013.1
20260901212203 97 190 1.7 3.5 0.00 0.00 0.00 39 1013.1
20260901212104 96 193 2.6 7.8 0.00 0.00 0.00 39 1013.2
20260901212003 96 196 2.6 7.8 0.00 0.00 0.00 39 1013.2
20260901211903 96 198 2.6 7.8 0.00 0.00 0.00 38 1013.2
20260901211803 96 201 2.6 7.8 0.00 0.00 0.00 39 1013.3
20260901211703 96 205 2.6 7.8 0.00 0.00 0.00 38 1013.3
20260901211624 96 208 2.6 7.8 0.00 0.00 0.00 38 1013.3
20260901211503 96 213 2.6 7.8 0.00 0.00 0.00 39 1013.3
20260901211403 96 220 3.5 7.8 0.00 0.00 0.00 39 1013.3
20260901211304 96 224 3.5 7.8 0.00 0.00 0.00 39 1013.3
20260901211203 96 231 3.5 7.8 0.00 0.00 0.00 39 1013.3
20260901211103 96 236 3.5 8.7 0.00 0.00 0.00 39 1013.3
20260901211003 96 241 3.5 8.7 0.00 0.00 0.00 39 1013.3
20260901210924 96 238 3.5 8.7 0.00 0.00 0.00 39 1013.4
20260901210803 96 241 3.5 8.7 0.00 0.00 0.00 39 1013.4
20260901210704 96 243 3.5 8.7 0.00 0.00 0.00 40 1013.4
20260901210603 96 243 3.5 8.7 0.00 0.00 0.00 39 1013.3
20260901210524 96 243 2.6 8.7 0.00 0.00 0.00 39 1013.4
20260901210403 96 242 2.6 8.7 0.00 0.00 0.00 39 1013.4
20260901210303 96 242 2.6 8.7 0.00 0.00 0.00 39 1013.5
20260901210203 96 241 2.6 8.7 0.00 0.00 0.00 39 1013.5
20260901210003 97 240 1.7 3.5 0.00 0.00 0.00 39 1013.4
20260901205924 97 247 1.7 4.3 0.00 0.00 0.00 39 1013.5
20260901205804 97 248 1.7 4.3 0.00 0.00 0.00 39 1013.5
20260901205703 97 250 1.7 7.8 0.00 0.00 0.00 38 1013.5
20260901205624 97 250 2.6 7.8 0.00 0.00 0.00 39 1013.6
20260901205503 97 254 2.6 7.8 0.00 0.00 0.00 39 1013.6
20260901205403 97 255 2.6 7.8 0.00 0.00 0.00 38 1013.6
20260901205306 97 254 3.5 7.8 0.00 0.00 0.00 38 1013.6
20260901205203 97 249 3.5 7.8 0.00 0.00 0.00 38 1013.6
20260901205103 97 246 3.5 7.8 0.00 0.00 0.00 38 1013.7
20260901205024 97 244 3.5 7.8 0.00 0.00 0.00 38 1013.7
20260901204924 97 241 3.5 7.8 0.00 0.00 0.00 38 1013.6
20260901204803 97 236 3.5 7.8 0.00 0.00 0.00 38 1013.7